KC5DAQ-22 Weather Reports


time (UTC)temp
C
wind
direction
speed
KPH
gust
KPH
rain 1hr
cm
rain 24hr
cm
rain mn
cm
humidity
%
barometer
mb
20260904162331 30 124 9.7 16.1 0.00 0.00 0.00 83 1013.1
20260904162232 30 103 11.3 16.1 0.00 0.00 0.00 84 1013.1
20260904162132 30 131 9.7 16.1 0.00 0.00 0.00 84 1013.1
20260904162032 30 116 8.0 16.1 0.00 0.00 0.00 84 1013.1
20260904161931 30 107 9.7 16.1 0.00 0.00 0.00 84 1013.1
20260904161832 30 93 9.7 16.1 0.00 0.00 0.00 84 1013.1
20260904161733 30 92 9.7 16.1 0.00 0.00 0.00 84 1013.1
20260904161632 30 96 9.7 16.1 0.00 0.00 0.00 84 1013.0
20260904161532 30 90 9.7 16.1 0.00 0.00 0.00 85 1013.0
20260904161431 30 96 8.0 16.1 0.00 0.00 0.00 85 1013.0
20260904161332 30 86 8.0 16.1 0.00 0.00 0.00 85 1013.1
20260904161231 30 107 6.4 16.1 0.00 0.00 0.00 85 1013.0
20260904161131 30 102 6.4 16.1 0.00 0.00 0.00 85 1013.1
20260904161032 30 107 6.4 16.1 0.00 0.00 0.00 85 1013.0
20260904160932 30 102 6.4 16.1 0.00 0.00 0.00 85 1013.0
20260904160832 30 110 8.0 16.1 0.00 0.00 0.00 85 1013.1
20260904160731 30 124 9.7 16.1 0.00 0.00 0.00 85 1013.0
20260904160633 30 114 9.7 16.1 0.00 0.00 0.00 85 1013.1
20260904160532 30 113 9.7 16.1 0.00 0.00 0.00 85 1013.1
20260904160431 30 96 8.0 14.5 0.00 0.00 0.00 85 1013.0
20260904160331 30 113 8.0 14.5 0.00 0.00 0.00 85 1013.1
20260904160231 30 96 6.4 14.5 0.00 0.00 0.00 85 1013.0
20260904160131 30 104 6.4 14.5 0.00 0.00 0.00 85 1013.0
20260904160032 30 109 8.0 14.5 0.00 0.00 0.00 85 1013.0
20260904155931 30 103 8.0 14.5 0.00 0.00 0.00 85 1013.1
20260904155831 30 104 6.4 14.5 0.00 0.00 0.00 85 1013.1
20260904155732 30 106 4.8 11.3 0.00 0.00 0.00 85 1013.0
20260904155633 30 99 6.4 11.3 0.00 0.00 0.00 85 1013.1
20260904155531 30 117 6.4 11.3 0.00 0.00 0.00 85 1013.1
20260904155431 30 125 4.8 11.3 0.00 0.00 0.00 85 1013.1
20260904155334 30 92 4.8 11.3 0.00 0.00 0.00 85 1013.0
20260904155232 30 106 4.8 11.3 0.00 0.00 0.00 85 1013.0
20260904155132 30 110 4.8 11.3 0.00 0.00 0.00 85 1013.1
20260904155032 30 103 6.4 11.3 0.00 0.00 0.00 85 1013.1
20260904154930 30 85 9.7 11.3 0.00 0.00 0.00 85 1013.1
20260904154831 30 93 9.7 11.3 0.00 0.00 0.00 85 1013.1
20260904154731 30 85 8.0 11.3 0.00 0.00 0.00 85 1013.2
20260904154632 30 138 6.4 11.3 0.00 0.00 0.00 85 1013.1
20260904154531 30 97 6.4 11.3 0.00 0.00 0.00 85 1013.2
20260904154432 30 89 6.4 11.3 0.00 0.00 0.00 85 1013.1
20260904154330 30 87 4.8 11.3 0.00 0.00 0.00 85 1013.1
20260904154231 30 97 3.2 11.3 0.00 0.00 0.00 85 1013.0
20260904154132 30 123 3.2 11.3 0.00 0.00 0.00 85 1013.0
20260904154034 30 137 6.4 11.3 0.00 0.00 0.00 85 1013.0
20260904153932 30 109 8.0 11.3 0.00 0.00 0.00 84 1013.0
20260904153832 30 89 8.0 11.3 0.00 0.00 0.00 85 1013.0
20260904153732 30 83 4.8 8.0 0.00 0.00 0.00 85 1012.9
20260904153633 30 96 3.2 8.0 0.00 0.00 0.00 85 1013.0
20260904153532 30 96 4.8 8.0 0.00 0.00 0.00 84 1013.0
20260904153432 30 96 6.4 8.0 0.00 0.00 0.00 84 1013.0
20260904153331 30 110 6.4 8.0 0.00 0.00 0.00 85 1012.9
20260904153232 30 100 6.4 8.0 0.00 0.00 0.00 85 1012.9
20260904153132 30 79 6.4 8.0 0.00 0.00 0.00 85 1012.9
20260904153031 30 73 6.4 8.0 0.00 0.00 0.00 85 1012.9
20260904152932 30 73 6.4 8.0 0.00 0.00 0.00 84 1012.8
20260904152832 30 76 6.4 8.0 0.00 0.00 0.00 84 1012.9
20260904152731 30 59 3.2 6.4 0.00 0.00 0.00 84 1012.8
20260904152631 30 58 1.6 6.4 0.00 0.00 0.00 85 1012.7
20260904152531 30 58 1.6 6.4 0.00 0.00 0.00 85 1012.7
20260904152431 30 58 3.2 6.4 0.00 0.00 0.00 84 1012.7
20260904152331 30 58 4.8 6.4 0.00 0.00 0.00 84 1012.7
20260904152232 30 59 3.2 8.0 0.00 0.00 0.00 84 1012.7
20260904152108 30 61 1.6 9.7 0.00 0.00 0.00 85 1012.6
20260904152009 30 118 0.0 9.7 0.00 0.00 0.00 84 1012.6
20260904151908 30 118 1.6 9.7 0.00 0.00 0.00 84 1012.6
20260904151806 30 118 3.2 11.3 0.00 0.00 0.00 84 1012.6
20260904151703 30 116 3.2 11.3 0.00 0.00 0.00 85 1012.7
20260904151603 30 94 3.2 11.3 0.00 0.00 0.00 85 1012.6
20260904151502 30 93 4.8 11.3 0.00 0.00 0.00 84 1012.7
20260904151402 30 94 8.0 11.3 0.00 0.00 0.00 84 1012.7
20260904151302 30 94 8.0 11.3 0.00 0.00 0.00 85 1012.7
20260904151202 30 87 8.0 11.3 0.00 0.00 0.00 85 1012.7
20260904151100 30 111 8.0 11.3 0.00 0.00 0.00 86 1012.7
20260904151000 30 56 8.0 11.3 0.00 0.00 0.00 85 1012.7
20260904150856 30 83 6.4 9.7 0.00 0.00 0.00 86 1012.8
20260904150752 30 86 6.4 9.7 0.00 0.00 0.00 86 1012.7
20260904150652 30 85 6.4 9.7 0.00 0.00 0.00 87 1012.8
20260904150554 30 71 4.8 9.7 0.00 0.00 0.00 87 1012.8
20260904150452 30 69 6.4 9.7 0.00 0.00 0.00 87 1012.8
20260904150352 29 76 8.0 9.7 0.00 0.00 0.00 87 1012.8
20260904150254 29 76 8.0 9.7 0.00 0.00 0.00 87 1012.7
20260904150153 29 66 6.4 9.7 0.00 0.00 0.00 87 1012.8
20260904150052 29 94 8.0 11.3 0.00 0.00 0.00 86 1012.7
20260904145952 29 76 6.4 11.3 0.00 0.00 0.00 86 1012.7
20260904145854 29 94 6.4 11.3 0.00 0.00 0.00 86 1012.7
20260904145752 29 103 6.4 11.3 0.00 0.00 0.00 86 1012.7
20260904145652 29 86 8.0 11.3 0.00 0.00 0.00 86 1012.8
20260904145554 29 83 8.0 11.3 0.00 0.00 0.00 86 1012.8
20260904145452 29 94 8.0 11.3 0.00 0.00 0.00 86 1012.7
20260904145353 29 90 8.0 11.3 0.00 0.00 0.00 85 1012.8
20260904145255 30 85 8.0 11.3 0.00 0.00 0.00 85 1012.7
20260904145152 30 93 9.7 11.3 0.00 0.00 0.00 85 1012.7
20260904145052 30 89 8.0 11.3 0.00 0.00 0.00 85 1012.7
20260904144953 30 80 8.0 11.3 0.00 0.00 0.00 85 1012.7
20260904144854 30 80 8.0 11.3 0.00 0.00 0.00 85 1012.6
20260904144753 30 89 8.0 11.3 0.00 0.00 0.00 84 1012.7
20260904144653 30 83 8.0 11.3 0.00 0.00 0.00 84 1012.7
20260904144555 30 55 6.4 11.3 0.00 0.00 0.00 84 1012.7
20260904144453 30 61 6.4 11.3 0.00 0.00 0.00 84 1012.6
20260904144352 30 73 6.4 11.3 0.00 0.00 0.00 84 1012.6
20260904144252 30 58 6.4 11.3 0.00 0.00 0.00 84 1012.6
20260904144153 30 51 6.4 11.3 0.00 0.00 0.00 84 1012.7
20260904144052 30 45 6.4 11.3 0.00 0.00 0.00 84 1012.6
20260904143953 30 24 3.2 9.7 0.00 0.00 0.00 84 1012.7
20260904143852 30 63 4.8 9.7 0.00 0.00 0.00 84 1012.7
20260904143752 30 102 6.4 9.7 0.00 0.00 0.00 84 1012.6
20260904143653 30 42 6.4 8.0 0.00 0.00 0.00 84 1012.6
20260904143552 30 79 6.4 8.0 0.00 0.00 0.00 84 1012.7
20260904143454 30 76 6.4 9.7 0.00 0.00 0.00 84 1012.7
20260904143353 30 7 6.4 9.7 0.00 0.00 0.00 84 1012.7
20260904143251 30 55 6.4 9.7 0.00 0.00 0.00 84 1012.6
20260904143153 30 39 6.4 9.7 0.00 0.00 0.00 84 1012.6
20260904143053 30 38 4.8 9.7 0.00 0.00 0.00 85 1012.6
20260904142953 30 8 3.2 9.7 0.00 0.00 0.00 85 1012.6
20260904142854 30 34 4.8 9.7 0.00 0.00 0.00 86 1012.6
20260904142751 30 34 6.4 9.7 0.00 0.00 0.00 86 1012.6
20260904142651 30 34 6.4 9.7 0.00 0.00 0.00 86 1012.6
20260904142550 30 32 4.8 9.7 0.00 0.00 0.00 86 1012.5
20260904142452 30 37 4.8 8.0 0.00 0.00 0.00 86 1012.5
20260904142352 30 90 4.8 9.7 0.00 0.00 0.00 86 1012.5
20260904142252 30 79 3.2 9.7 0.00 0.03 0.00 86 1012.5
20260904142152 29 79 4.8 9.7 0.00 0.03 0.00 86 1012.5
20260904142053 29 78 4.8 9.7 0.00 0.03 0.00 86 1012.4
20260904141951 29 78 4.8 9.7 0.00 0.03 0.00 87 1012.4
20260904141851 29 82 6.4 9.7 0.00 0.03 0.00 87 1012.5
20260904141752 29 97 6.4 9.7 0.00 0.05 0.00 87 1012.5
20260904141653 29 102 6.4 9.7 0.00 0.05 0.00 87 1012.5
20260904141549 29 76 6.4 9.7 0.00 0.05 0.00 88 1012.5
20260904141448 29 93 4.8 9.7 0.00 0.05 0.00 88 1012.5
20260904141346 29 68 3.2 8.0 0.00 0.05 0.00 88 1012.5
20260904141245 29 68 1.6 8.0 0.00 0.05 0.00 88 1012.6
20260904141144 29 66 1.6 8.0 0.00 0.05 0.00 89 1012.5
20260904141038 29 61 3.2 8.0 0.00 0.05 0.00 90 1012.4
20260904140938 28 61 4.8 8.0 0.00 0.05 0.00 89 1012.4
20260904140835 28 59 3.2 8.0 0.00 0.05 0.00 90 1012.5
20260904140734 28 49 4.8 8.0 0.00 0.05 0.00 90 1012.5
20260904140633 28 97 4.8 8.0 0.00 0.05 0.00 90 1012.4
20260904140530 28 109 6.4 8.0 0.00 0.05 0.00 90 1012.5
20260904140431 28 87 6.4 8.0 0.00 0.05 0.00 90 1012.4
20260904140331 28 82 6.4 8.0 0.00 0.05 0.00 90 1012.4
20260904140231 28 78 6.4 9.7 0.00 0.05 0.00 90 1012.4
20260904140133 28 58 6.4 9.7 0.00 0.05 0.00 90 1012.4
20260904140032 28 65 6.4 9.7 0.00 0.05 0.00 90 1012.4
20260904135932 28 63 6.4 9.7 0.00 0.05 0.00 91 1012.5
20260904135831 28 63 6.4 9.7 0.00 0.05 0.00 91 1012.4
20260904135732 28 62 6.4 9.7 0.00 0.05 0.00 91 1012.4
20260904135632 28 61 6.4 9.7 0.00 0.05 0.00 91 1012.5
20260904135531 28 28 4.8 9.7 0.00 0.05 0.00 91 1012.5
20260904135431 28 49 4.8 9.7 0.00 0.05 0.00 91 1012.5
20260904135333 28 55 4.8 9.7 0.00 0.05 0.00 91 1012.5
20260904135232 28 61 4.8 9.7 0.00 0.05 0.00 91 1012.5
20260904135133 28 65 6.4 9.7 0.00 0.05 0.00 91 1012.4
20260904135032 28 52 4.8 8.0 0.00 0.05 0.00 92 1012.4
20260904134931 28 42 3.2 6.4 0.00 0.05 0.00 92 1012.4
20260904134832 28 31 3.2 6.4 0.00 0.05 0.00 92 1012.3
20260904134731 28 16 1.6 8.0 0.00 0.05 0.00 92 1012.4
20260904134631 28 16 3.2 9.7 0.00 0.05 0.00 92 1012.4
20260904134531 28 16 3.2 9.7 0.00 0.05 0.00 92 1012.3
20260904134428 28 16 3.2 11.3 0.00 0.05 0.00 92 1012.3
20260904134327 28 16 4.8 11.3 0.00 0.05 0.00 93 1012.3
20260904134222 28 14 4.8 11.3 0.00 0.05 0.00 93 1012.3
20260904134122 28 13 3.2 11.3 0.00 0.05 0.00 93 1012.3
20260904134022 28 61 3.2 11.3 0.00 0.05 0.00 93 1012.4
20260904133921 28 61 4.8 11.3 0.00 0.05 0.00 93 1012.4
20260904133820 27 62 6.4 11.3 0.00 0.05 0.00 93 1012.3
20260904133718 27 61 6.4 11.3 0.00 0.05 0.00 93 1012.3
20260904133616 27 42 8.0 11.3 0.00 0.05 0.00 93 1012.3
20260904133516 27 51 8.0 11.3 0.00 0.05 0.00 93 1012.3
20260904133414 27 45 6.4 9.7 0.00 0.05 0.00 93 1012.3
20260904133313 27 41 6.4 9.7 0.00 0.05 0.00 93 1012.3
20260904133210 27 49 8.0 9.7 0.00 0.05 0.00 93 1012.3
20260904133110 27 41 6.4 8.0 0.00 0.05 0.00 93 1012.3
20260904133008 27 35 6.4 8.0 0.00 0.05 0.00 93 1012.3
20260904132906 27 21 6.4 8.0 0.00 0.05 0.00 93 1012.3
20260904132805 27 42 6.4 8.0 0.00 0.05 0.00 93 1012.3
20260904132704 27 42 6.4 8.0 0.00 0.05 0.00 93 1012.2
20260904132603 27 39 6.4 8.0 0.00 0.05 0.00 93 1012.3
20260904132503 27 51 6.4 8.0 0.00 0.05 0.00 93 1012.3
20260904132403 27 41 4.8 6.4 0.00 0.05 0.00 93 1012.2
20260904132306 27 39 4.8 6.4 0.00 0.05 0.00 93 1012.3
20260904132204 27 39 3.2 6.4 0.00 0.05 0.00 94 1012.3
20260904132103 27 39 3.2 6.4 0.00 0.05 0.00 94 1012.3
20260904132004 27 39 4.8 6.4 0.00 0.05 0.00 94 1012.3
20260904131902 27 39 3.2 6.4 0.00 0.05 0.00 94 1012.3
20260904131803 27 39 3.2 8.0 0.00 0.05 0.00 94 1012.2
20260904131703 27 39 3.2 8.0 0.00 0.05 0.00 94 1012.3
20260904131602 27 39 3.2 8.0 0.00 0.05 0.00 94 1012.3
20260904131503 27 39 3.2 8.0 0.00 0.05 0.00 94 1012.2
20260904131401 27 39 3.2 8.0 0.00 0.05 0.00 94 1012.2
20260904131303 27 39 4.8 8.0 0.00 0.05 0.00 94 1012.2
20260904131202 27 39 4.8 8.0 0.00 0.05 0.00 94 1012.2
20260904131102 27 39 6.4 8.0 0.00 0.05 0.00 94 1012.2
20260904131005 27 39 6.4 8.0 0.00 0.05 0.00 94 1012.2
20260904130903 27 39 3.2 8.0 0.00 0.05 0.00 94 1012.1
20260904130804 27 39 1.6 3.2 0.00 0.05 0.00 95 1012.1
20260904130702 27 39 1.6 3.2 0.00 0.05 0.00 95 1012.1
20260904130602 27 39 1.6 3.2 0.00 0.05 0.00 95 1012.1
20260904130504 27 39 1.6 3.2 0.00 0.05 0.00 95 1012.1
20260904130404 27 39 1.6 4.8 0.00 0.05 0.00 95 1012.1
20260904130303 27 39 1.6 6.4 0.00 0.05 0.00 95 1012.0
20260904130204 27 39 1.6 6.4 0.00 0.05 0.00 95 1012.0
20260904130004 27 39 0.0 6.4 0.00 0.05 0.00 95 1012.1
20260904125904 27 39 0.0 6.4 0.00 0.05 0.00 95 1012.1
20260904125803 27 39 0.0 6.4 0.00 0.05 0.00 95 1012.0
20260904125702 27 39 1.6 8.0 0.00 0.05 0.00 95 1012.1
20260904125603 27 25 3.2 8.0 0.00 0.05 0.00 95 1012.0
20260904125503 27 24 3.2 8.0 0.00 0.05 0.00 95 1012.1
20260904125401 27 24 4.8 8.0 0.00 0.05 0.00 95 1012.0
20260904125305 27 24 4.8 8.0 0.00 0.05 0.00 95 1012.1
20260904125204 27 25 4.8 8.0 0.00 0.05 0.00 95 1012.1
20260904125103 27 38 4.8 8.0 0.00 0.05 0.00 95 1012.0
20260904125003 27 38 4.8 8.0 0.00 0.05 0.00 95 1012.1
20260904124903 27 38 4.8 8.0 0.00 0.05 0.00 95 1012.0
20260904124802 27 37 6.4 8.0 0.00 0.05 0.00 95 1012.0
20260904124702 27 35 4.8 8.0 0.00 0.05 0.00 95 1012.0
20260904124603 27 32 4.8 6.4 0.00 0.05 0.00 95 1012.0
20260904124503 26 31 4.8 6.4 0.00 0.05 0.00 95 1012.0
20260904124403 26 31 4.8 6.4 0.00 0.05 0.00 95 1012.0
20260904124304 26 30 4.8 6.4 0.00 0.05 0.00 95 1012.0
20260904124202 26 51 4.8 6.4 0.00 0.05 0.00 95 1012.1
20260904124102 26 52 4.8 6.4 0.00 0.05 0.00 95 1012.0
20260904124003 26 52 6.4 6.4 0.00 0.05 0.00 95 1011.9
20260904123903 26 51 4.8 6.4 0.00 0.05 0.00 95 1011.9
20260904123801 26 52 4.8 6.4 0.00 0.05 0.00 95 1011.9
20260904123703 26 52 3.2 6.4 0.00 0.05 0.00 95 1011.8
20260904123604 26 54 4.8 6.4 0.00 0.05 0.00 95 1011.8
20260904123503 26 54 4.8 6.4 0.00 0.05 0.00 95 1011.8
20260904123402 26 54 4.8 6.4 0.00 0.05 0.00 95 1011.7
20260904123302 26 54 3.2 6.4 0.00 0.05 0.00 95 1011.7
20260904123204 26 66 3.2 4.8 0.00 0.05 0.00 95 1011.7
20260904123102 26 66 3.2 4.8 0.00 0.05 0.00 95 1011.6
20260904123004 26 68 3.2 4.8 0.00 0.05 0.00 95 1011.6
20260904122904 26 68 3.2 4.8 0.00 0.05 0.00 95 1011.6
20260904122804 26 68 3.2 4.8 0.00 0.05 0.00 95 1011.7
20260904122702 26 68 3.2 4.8 0.00 0.05 0.00 95 1011.6
20260904122603 26 68 3.2 4.8 0.00 0.05 0.00 95 1011.6
20260904122503 26 69 3.2 4.8 0.00 0.05 0.00 95 1011.5
20260904122403 26 69 3.2 3.2 0.00 0.05 0.00 95 1011.6
20260904122306 26 69 3.2 3.2 0.00 0.05 0.00 95 1011.5
20260904122203 26 69 1.6 3.2 0.00 0.05 0.00 95 1011.5
20260904122103 26 69 0.0 3.2 0.00 0.05 0.00 95 1011.5
20260904121959 26 69 0.0 4.8 0.00 0.05 0.00 95 1011.5
20260904121859 26 69 0.0 4.8 0.00 0.05 0.00 95 1011.4
20260904121758 26 69 0.0 4.8 0.00 0.05 0.00 95 1011.5
20260904121656 26 69 0.0 6.4 0.00 0.05 0.00 95 1011.5
20260904121554 26 69 0.0 6.4 0.00 0.05 0.00 95 1011.4
20260904121454 26 69 0.0 6.4 0.00 0.05 0.00 95 1011.4
20260904121351 26 69 0.0 6.4 0.00 0.05 0.00 95 1011.4
20260904121251 26 69 1.6 8.0 0.00 0.05 0.00 95 1011.3
20260904121148 26 69 3.2 8.0 0.00 0.05 0.00 95 1011.3
20260904121048 26 69 3.2 8.0 0.00 0.05 0.00 95 1011.3
20260904120948 26 69 3.2 8.0 0.00 0.05 0.00 95 1011.4
20260904120848 26 69 3.2 8.0 0.00 0.05 0.00 95 1011.4
20260904120749 26 69 3.2 8.0 0.00 0.05 0.00 95 1011.4
20260904120649 26 68 4.8 8.0 0.00 0.05 0.00 95 1011.3
20260904120549 26 68 4.8 8.0 0.00 0.05 0.00 95 1011.3
20260904120448 26 68 4.8 8.0 0.00 0.05 0.00 95 1011.3
20260904120348 26 66 4.8 8.0 0.00 0.05 0.00 95 1011.3
20260904120248 26 66 4.8 8.0 0.00 0.05 0.00 95 1011.4
20260904120148 26 65 4.8 8.0 0.00 0.05 0.00 95 1011.3
20260904120049 26 65 4.8 8.0 0.00 0.05 0.00 95 1011.4
20260904115948 26 63 4.8 8.0 0.00 0.05 0.00 95 1011.4
20260904115850 26 63 3.2 8.0 0.00 0.05 0.00 95 1011.4
20260904115749 26 58 0.0 0.0 0.00 0.08 0.00 95 1011.3
20260904115648 26 58 0.0 0.0 0.00 0.08 0.00 95 1011.3
20260904115549 26 58 0.0 0.0 0.00 0.08 0.00 95 1011.4
20260904115448 26 58 0.0 0.0 0.00 0.08 0.00 95 1011.3
20260904115348 26 58 0.0 0.0 0.00 0.08 0.00 95 1011.4
20260904115248 26 58 0.0 0.0 0.00 0.08 0.00 95 1011.3
20260904115149 26 58 0.0 0.0 0.00 0.08 0.00 95 1011.3
20260904115048 26 58 0.0 0.0 0.00 0.08 0.00 95 1011.3
20260904114948 26 58 0.0 0.0 0.00 0.08 0.00 95 1011.3
20260904114850 26 58 0.0 0.0 0.00 0.08 0.00 95 1011.2
20260904114749 26 58 0.0 0.0 0.00 0.08 0.00 95 1011.3
20260904114648 26 58 0.0 0.0 0.00 0.08 0.00 95 1011.3
20260904114548 26 58 0.0 0.0 0.00 0.08 0.00 95 1011.3
20260904114449 26 58 0.0 0.0 0.00 0.08 0.00 95 1011.3
20260904114349 26 58 0.0 0.0 0.00 0.08 0.00 95 1011.3
20260904114247 26 56 0.0 0.0 0.00 0.08 0.00 95 1011.2
20260904114149 26 58 0.0 0.0 0.00 0.08 0.00 95 1011.2
20260904114048 26 58 0.0 0.0 0.00 0.10 0.00 95 1011.2
20260904113949 26 58 0.0 0.0 0.00 0.10 0.00 95 1011.3
20260904113849 26 58 0.0 0.0 0.00 0.10 0.00 95 1011.2
20260904113748 26 58 0.0 0.0 0.00 0.10 0.00 95 1011.3
20260904113647 26 58 0.0 0.0 0.00 0.10 0.00 95 1011.3
20260904113548 26 58 0.0 0.0 0.00 0.10 0.00 95 1011.3
20260904113449 26 58 0.0 0.0 0.00 0.10 0.00 95 1011.3
20260904113348 26 58 0.0 0.0 0.00 0.10 0.00 95 1011.3
20260904113247 26 58 0.0 0.0 0.00 0.13 0.00 95 1011.4
20260904113149 26 58 0.0 0.0 0.00 0.13 0.00 95 1011.4
20260904113048 26 58 0.0 0.0 0.00 0.13 0.00 95 1011.4
20260904112947 26 58 0.0 0.0 0.00 0.15 0.00 95 1011.4
20260904112848 26 58 0.0 0.0 0.00 0.15 0.00 95 1011.3
20260904112749 26 58 0.0 0.0 0.00 0.15 0.00 95 1011.4
20260904112648 26 58 0.0 0.0 0.00 0.18 0.00 95 1011.3
20260904112547 26 58 0.0 0.0 0.00 0.18 0.00 95 1011.3
20260904112448 26 58 0.0 0.0 0.00 0.20 0.00 95 1011.3
20260904112333 26 58 0.0 0.0 0.00 0.23 0.00 95 1011.3
20260904112233 26 58 0.0 0.0 0.00 0.23 0.00 95 1011.3
20260904112130 26 58 0.0 0.0 0.00 0.25 0.00 95 1011.3
20260904112030 26 58 0.0 0.0 0.00 0.25 0.00 95 1011.2
20260904111933 26 58 0.0 0.0 0.00 0.28 0.00 95 1011.2
20260904111832 26 58 0.0 0.0 0.00 0.28 0.00 95 1011.2
20260904111731 26 58 0.0 0.0 0.00 0.30 0.00 95 1011.3
20260904111630 26 58 0.0 0.0 0.00 0.30 0.00 95 1011.3
20260904111527 26 58 0.0 0.0 0.00 0.30 0.00 95 1011.3
20260904111426 26 58 0.0 0.0 0.00 0.30 0.00 95 1011.2
20260904111325 26 58 0.0 0.0 0.00 0.33 0.00 95 1011.3
20260904111223 26 58 0.0 1.6 0.00 0.33 0.00 95 1011.2
20260904111122 26 58 0.0 4.8 0.00 0.33 0.00 95 1011.2
20260904111017 26 58 0.0 4.8 0.00 0.33 0.00 95 1011.3
20260904110917 26 58 0.0 4.8 0.00 0.33 0.00 95 1011.2
20260904110816 26 58 0.0 4.8 0.00 0.36 0.00 95 1011.3
20260904110713 26 58 0.0 4.8 0.00 0.36 0.00 95 1011.3
20260904110611 26 58 0.0 4.8 0.00 0.36 0.00 95 1011.3
20260904110510 26 58 0.0 4.8 0.00 0.36 0.00 95 1011.3
20260904110409 26 58 0.0 4.8 0.00 0.36 0.00 95 1011.3
20260904110306 26 58 1.6 4.8 0.00 0.36 0.00 95 1011.3
20260904110206 26 58 3.2 8.0 0.00 0.36 0.00 95 1011.3
20260904110104 26 58 1.6 8.0 0.00 0.36 0.00 95 1011.3
20260904110004 26 58 1.6 8.0 0.00 0.36 0.00 95 1011.3
20260904105903 26 58 3.2 8.0 0.00 0.36 0.00 95 1011.3
20260904105802 26 58 3.2 8.0 0.00 0.36 0.00 95 1011.3
20260904105704 26 58 3.2 8.0 0.00 0.36 0.00 95 1011.4
20260904105603 26 58 3.2 8.0 0.00 0.36 0.00 95 1011.3
20260904105504 26 58 3.2 8.0 0.00 0.36 0.00 95 1011.3
20260904105401 26 58 4.8 8.0 0.00 0.36 0.00 95 1011.2
20260904105305 26 58 6.4 8.0 0.00 0.36 0.00 95 1011.3
20260904105202 26 56 6.4 8.0 0.00 0.36 0.00 95 1011.3
20260904105104 26 82 4.8 8.0 0.00 0.36 0.00 95 1011.3
20260904105003 26 82 4.8 8.0 0.00 0.36 0.00 95 1011.4
20260904104904 26 82 4.8 8.0 0.00 0.36 0.00 95 1011.3
20260904104803 26 82 4.8 8.0 0.00 0.36 0.00 95 1011.3
20260904104702 26 68 4.8 8.0 0.00 0.36 0.00 95 1011.2
20260904104603 26 66 4.8 8.0 0.00 0.36 0.00 95 1011.2
20260904104502 26 66 4.8 8.0 0.00 0.36 0.00 95 1011.3
20260904104402 26 66 6.4 8.0 0.00 0.36 0.00 95 1011.2
20260904104304 26 65 4.8 8.0 0.00 0.36 0.00 95 1011.3
20260904104203 26 65 4.8 6.4 0.00 0.36 0.00 95 1011.2
20260904104102 26 65 4.8 6.4 0.00 0.36 0.00 95 1011.2
20260904104003 26 63 4.8 6.4 0.00 0.36 0.00 95 1011.3
20260904103903 26 63 4.8 6.4 0.00 0.36 0.00 95 1011.3
20260904103802 26 63 4.8 6.4 0.00 0.36 0.00 95 1011.2
20260904103702 26 54 3.2 6.4 0.00 0.36 0.00 95 1011.3
20260904103602 26 52 3.2 4.8 0.00 0.36 0.00 95 1011.3
20260904103502 26 52 3.2 4.8 0.00 0.36 0.00 95 1011.3
20260904103403 26 52 3.2 4.8 0.00 0.36 0.00 95 1011.3
20260904103303 26 52 3.2 4.8 0.00 0.36 0.00 95 1011.3
20260904103202 26 52 3.2 4.8 0.00 0.36 0.00 95 1011.3
20260904103102 26 52 3.2 4.8 0.00 0.36 0.00 95 1011.2
20260904103002 26 52 3.2 4.8 0.00 0.36 0.00 95 1011.2
20260904102903 26 52 3.2 4.8 0.00 0.36 0.00 95 1011.2
20260904102802 26 52 3.2 4.8 0.00 0.36 0.00 95 1011.2
20260904102704 26 52 3.2 6.4 0.00 0.36 0.00 95 1011.1
20260904102603 26 52 3.2 6.4 0.00 0.36 0.00 95 1011.1
20260904102503 26 52 3.2 6.4 0.00 0.36 0.00 95 1011.1
20260904102404 26 52 3.2 6.4 0.00 0.36 0.00 95 1011.1
20260904102301 26 52 3.2 6.4 0.00 0.36 0.00 95 1011.1
20260904102204 26 52 3.2 6.4 0.00 0.36 0.00 95 1011.0
20260904102103 26 52 3.2 6.4 0.00 0.36 0.00 95 1011.0
20260904102003 26 52 3.2 6.4 0.00 0.36 0.00 95 1011.0
20260904101903 26 54 3.2 6.4 0.00 0.36 0.00 95 1011.0
20260904101802 26 54 4.8 6.4 0.00 0.36 0.00 95 1011.0
20260904101702 26 75 3.2 6.4 0.00 0.36 0.00 95 1011.0
20260904101603 26 76 3.2 6.4 0.00 0.36 0.00 95 1010.9
20260904101503 26 76 3.2 6.4 0.00 0.36 0.00 95 1010.9
20260904101403 26 78 3.2 6.4 0.00 0.36 0.00 95 1011.0
20260904101303 26 78 3.2 6.4 0.00 0.36 0.00 95 1010.9
20260904101203 26 78 3.2 6.4 0.00 0.36 0.00 95 1011.0
20260904101103 26 78 3.2 4.8 0.00 0.36 0.00 95 1011.0
20260904101002 26 78 3.2 4.8 0.00 0.36 0.00 95 1011.0
20260904100903 26 79 0.0 4.8 0.00 0.36 0.00 95 1010.9
20260904100803 26 100 0.0 0.0 0.00 0.36 0.00 95 1010.9
20260904100703 26 102 0.0 0.0 0.00 0.36 0.00 95 1010.9
20260904100603 26 102 0.0 0.0 0.00 0.36 0.00 95 1010.9
20260904100504 26 102 0.0 0.0 0.00 0.36 0.00 95 1010.9
20260904100402 26 102 0.0 0.0 0.00 0.36 0.00 95 1010.8
20260904100302 26 102 0.0 0.0 0.00 0.36 0.00 95 1010.8
20260904100203 26 102 0.0 0.0 0.00 0.36 0.00 95 1010.9
20260904100004 26 102 0.0 0.0 0.00 0.36 0.00 95 1010.9
20260904095904 26 102 0.0 0.0 0.00 0.36 0.00 95 1010.8
20260904095804 26 102 0.0 0.0 0.00 0.36 0.00 95 1010.8
20260904095702 26 102 0.0 0.0 0.00 0.36 0.00 95 1010.9
20260904095602 26 102 0.0 0.0 0.00 0.36 0.00 95 1010.8
20260904095503 26 102 0.0 0.0 0.00 0.36 0.00 95 1010.8
20260904095402 26 102 0.0 0.0 0.00 0.36 0.00 95 1010.9
20260904095306 26 102 0.0 0.0 0.00 0.36 0.00 95 1010.7
20260904095205 26 102 0.0 0.0 0.00 0.36 0.00 95 1010.8
20260904095102 26 102 0.0 0.0 0.00 0.36 0.00 95 1010.8
20260904095002 26 102 0.0 0.0 0.00 0.36 0.00 95 1010.8
20260904094902 26 102 0.0 0.0 0.00 0.36 0.00 95 1010.8
20260904094802 26 102 0.0 0.0 0.00 0.36 0.00 95 1010.8
20260904094702 26 102 0.0 0.0 0.00 0.36 0.00 95 1010.8
20260904094604 26 102 0.0 0.0 0.00 0.36 0.00 95 1010.8
20260904094503 26 102 0.0 0.0 0.00 0.36 0.00 95 1010.7
20260904094402 26 102 0.0 0.0 0.00 0.36 0.00 95 1010.8
20260904094302 26 102 0.0 0.0 0.00 0.36 0.00 95 1010.8
20260904094203 26 102 0.0 0.0 0.00 0.36 0.00 95 1010.7
20260904094103 26 102 0.0 0.0 0.00 0.36 0.00 95 1010.7
20260904094003 26 102 0.0 0.0 0.00 0.36 0.00 95 1010.7
20260904093903 26 102 0.0 0.0 0.00 0.36 0.00 95 1010.7
20260904093803 26 102 0.0 0.0 0.00 0.36 0.00 95 1010.7
20260904093703 26 102 0.0 0.0 0.00 0.36 0.00 94 1010.7
20260904093602 26 102 0.0 0.0 0.00 0.36 0.00 95 1010.7
20260904093502 26 102 0.0 0.0 0.00 0.36 0.00 94 1010.8
20260904093402 26 102 0.0 0.0 0.00 0.36 0.00 94 1010.7
20260904093303 26 102 0.0 0.0 0.00 0.36 0.00 94 1010.7
20260904093202 26 102 0.0 0.0 0.00 0.36 0.00 95 1010.7
20260904093102 26 102 0.0 0.0 0.00 0.36 0.00 95 1010.7
20260904093002 26 102 0.0 0.0 0.00 0.36 0.00 95 1010.7
20260904092902 26 102 0.0 0.0 0.00 0.36 0.00 95 1010.7
20260904092803 26 102 0.0 0.0 0.00 0.36 0.00 94 1010.7
20260904092703 26 102 0.0 0.0 0.00 0.36 0.00 94 1010.7
20260904092602 26 102 0.0 0.0 0.00 0.36 0.00 94 1010.7
20260904092502 26 102 0.0 0.0 0.00 0.36 0.00 94 1010.7
20260904092402 26 102 0.0 0.0 0.00 0.36 0.00 94 1010.8
20260904092306 26 102 0.0 0.0 0.00 0.36 0.00 94 1010.7
20260904092202 26 102 0.0 0.0 0.00 0.36 0.00 94 1010.7
20260904092103 26 102 0.0 0.0 0.00 0.36 0.00 94 1010.7
20260904092003 26 102 0.0 0.0 0.00 0.36 0.00 94 1010.7
20260904091903 26 102 0.0 0.0 0.00 0.36 0.00 94 1010.6
20260904091748 26 102 0.0 0.0 0.00 0.36 0.00 94 1010.6
20260904091647 26 102 0.0 0.0 0.00 0.36 0.00 94 1010.6
20260904091546 26 102 0.0 0.0 0.00 0.36 0.00 94 1010.6
20260904091444 26 102 0.0 0.0 0.00 0.36 0.00 94 1010.7
20260904091344 26 102 0.0 0.0 0.00 0.36 0.00 94 1010.6
20260904091244 26 102 0.0 0.0 0.00 0.36 0.00 94 1010.6
20260904091146 26 102 0.0 0.0 0.00 0.36 0.00 94 1010.7
20260904091046 26 93 0.0 0.0 0.00 0.36 0.00 94 1010.6
20260904090946 26 96 0.0 0.0 0.00 0.36 0.00 94 1010.6
20260904090845 26 96 0.0 0.0 0.00 0.36 0.00 94 1010.6
20260904090744 26 96 0.0 0.0 0.00 0.36 0.00 94 1010.7
20260904090644 26 96 0.0 0.0 0.00 0.36 0.00 94 1010.7
20260904090545 26 96 0.0 0.0 0.00 0.36 0.00 94 1010.8
20260904090444 26 96 0.0 0.0 0.00 0.36 0.00 94 1010.8
20260904090344 26 96 0.0 0.0 0.00 0.36 0.00 94 1010.8
20260904090244 26 97 0.0 0.0 0.00 0.36 0.00 94 1010.8
20260904090147 26 97 0.0 0.0 0.00 0.36 0.00 94 1010.8
20260904090045 26 99 0.0 0.0 0.00 0.36 0.00 94 1010.8
20260904085946 26 99 0.0 0.0 0.00 0.36 0.00 94 1010.8
20260904085846 27 100 0.0 0.0 0.00 0.36 0.00 94 1010.9
20260904085745 26 100 0.0 0.0 0.00 0.36 0.00 94 1010.8
20260904085642 27 100 0.0 0.0 0.00 0.36 0.00 94 1010.9
20260904085542 27 100 0.0 0.0 0.00 0.36 0.00 94 1010.9
20260904085439 27 100 0.0 0.0 0.00 0.36 0.00 94 1010.8
20260904085338 27 100 0.0 0.0 0.00 0.36 0.00 94 1010.8
20260904085237 27 100 0.0 0.0 0.00 0.36 0.00 94 1010.9
20260904085135 27 100 0.0 0.0 0.00 0.36 0.00 94 1010.9
20260904085034 27 100 0.0 0.0 0.00 0.36 0.00 94 1010.8
20260904084931 27 100 0.0 0.0 0.00 0.36 0.00 93 1010.9
20260904084831 27 102 0.0 0.0 0.00 0.36 0.00 94 1010.8
20260904084731 27 102 0.0 0.0 0.00 0.36 0.00 93 1010.9
20260904084632 27 102 0.0 0.0 0.00 0.36 0.00 93 1010.8
20260904084531 27 102 0.0 0.0 0.00 0.36 0.00 93 1010.8
20260904084432 27 102 0.0 0.0 0.00 0.36 0.00 93 1010.8
20260904084331 27 102 0.0 0.0 0.00 0.36 0.00 93 1010.9
20260904084232 27 102 0.0 0.0 0.00 0.36 0.00 93 1010.8
20260904084131 27 102 0.0 0.0 0.00 0.36 0.00 93 1010.8
20260904084031 27 102 0.0 0.0 0.00 0.36 0.00 93 1010.8
20260904083932 27 102 0.0 0.0 0.00 0.36 0.00 93 1010.9
20260904083832 27 102 0.0 0.0 0.00 0.36 0.00 93 1010.9
20260904083731 27 102 0.0 0.0 0.00 0.36 0.00 93 1010.9
20260904083631 27 102 0.0 0.0 0.00 0.36 0.00 93 1010.9
20260904083532 27 102 0.0 0.0 0.00 0.36 0.00 93 1010.9
20260904083432 27 102 0.0 0.0 0.00 0.36 0.00 93 1010.9
20260904083331 27 102 0.0 0.0 0.00 0.36 0.00 93 1010.9
20260904083231 27 102 0.0 0.0 0.00 0.36 0.00 93 1010.9
20260904083132 27 102 0.0 0.0 0.00 0.36 0.00 93 1011.0
20260904083031 27 102 0.0 0.0 0.00 0.36 0.00 93 1010.8
20260904082932 27 102 0.0 0.0 0.00 0.36 0.00 93 1010.9
20260904082832 27 102 0.0 0.0 0.00 0.36 0.00 93 1010.9
20260904082731 27 102 0.0 0.0 0.00 0.36 0.00 93 1011.0
20260904082630 27 102 0.0 0.0 0.00 0.36 0.00 93 1010.9
20260904082533 27 102 0.0 0.0 0.00 0.36 0.00 93 1011.0
20260904082431 27 102 0.0 0.0 0.00 0.36 0.00 93 1011.0
20260904082332 27 102 0.0 0.0 0.00 0.36 0.00 93 1011.0
20260904082233 27 102 0.0 0.0 0.00 0.36 0.00 93 1011.1
20260904082111 27 102 0.0 0.0 0.00 0.36 0.00 93 1011.0
20260904082012 27 102 0.0 0.0 0.00 0.36 0.00 93 1011.0
20260904081910 27 102 0.0 0.0 0.00 0.36 0.00 93 1011.0
20260904081807 27 102 0.0 0.0 0.00 0.36 0.00 93 1011.0
20260904081706 27 102 0.0 0.0 0.00 0.36 0.00 93 1011.0
20260904081605 27 102 0.0 0.0 0.00 0.36 0.00 93 1011.0
20260904081503 27 102 0.0 0.0 0.00 0.36 0.00 93 1011.0
20260904081403 27 102 0.0 0.0 0.00 0.36 0.00 93 1011.0
20260904081304 27 102 0.0 0.0 0.00 0.36 0.00 93 1011.0
20260904081202 27 102 0.0 0.0 0.00 0.36 0.00 93 1011.0
20260904081102 27 102 0.0 0.0 0.00 0.36 0.00 93 1011.0
20260904081002 27 102 0.0 0.0 0.00 0.36 0.00 92 1011.0
20260904080904 27 102 0.0 0.0 0.00 0.36 0.00 92 1011.0
20260904080802 27 102 0.0 0.0 0.00 0.36 0.00 92 1010.9
20260904080702 27 102 0.0 0.0 0.00 0.36 0.00 92 1011.0
20260904080603 27 102 0.0 0.0 0.00 0.36 0.00 92 1011.0
20260904080503 27 102 0.0 0.0 0.00 0.36 0.00 92 1011.0
20260904080403 27 102 0.0 0.0 0.00 0.36 0.00 92 1011.0
20260904080302 27 102 0.0 0.0 0.00 0.36 0.00 92 1011.0
20260904080204 27 102 0.0 0.0 0.00 0.36 0.00 92 1011.0
20260904080002 27 102 0.0 0.0 0.00 0.36 0.00 92 1011.0
20260904075904 27 102 0.0 0.0 0.00 0.36 0.00 92 1011.0
20260904075802 27 102 0.0 0.0 0.00 0.36 0.00 91 1010.9
20260904075703 27 102 0.0 0.0 0.00 0.36 0.00 91 1010.9
20260904075603 27 102 0.0 0.0 0.00 0.36 0.00 91 1011.0
20260904075503 27 102 0.0 0.0 0.00 0.36 0.00 91 1010.9
20260904075403 27 102 0.0 0.0 0.00 0.36 0.00 91 1010.9
20260904075306 27 102 0.0 0.0 0.00 0.36 0.00 91 1010.9
20260904075204 27 123 0.0 0.0 0.00 0.36 0.00 91 1010.9
20260904075102 27 123 0.0 0.0 0.00 0.36 0.00 91 1010.9
20260904075003 27 188 0.0 0.0 0.00 0.36 0.00 91 1010.9
20260904074904 27 197 0.0 0.0 0.00 0.36 0.00 91 1010.9
20260904074802 27 199 0.0 3.2 0.00 0.36 0.00 91 1010.9
20260904074702 27 199 0.0 4.8 0.00 0.36 0.00 91 1010.9
20260904074602 27 199 0.0 4.8 0.00 0.36 0.00 91 1011.0
20260904074503 27 199 0.0 4.8 0.00 0.36 0.00 91 1010.9
20260904074402 27 199 0.0 4.8 0.00 0.36 0.00 91 1010.9
20260904074304 27 199 0.0 4.8 0.00 0.36 0.00 91 1010.9
20260904074203 27 199 0.0 4.8 0.00 0.36 0.00 91 1010.9
20260904074102 27 199 0.0 4.8 0.00 0.36 0.00 91 1010.9
20260904074004 27 199 1.6 4.8 0.00 0.36 0.00 91 1010.9
20260904073904 27 199 1.6 4.8 0.00 0.36 0.00 91 1010.9
20260904073804 27 199 1.6 4.8 0.00 0.36 0.00 91 1010.9
20260904073702 27 199 0.0 4.8 0.00 0.36 0.00 91 1010.9
20260904073603 27 199 0.0 4.8 0.00 0.36 0.00 91 1010.9
20260904073503 27 199 0.0 4.8 0.00 0.36 0.00 91 1010.9
20260904073402 27 199 0.0 4.8 0.00 0.36 0.00 91 1010.9
20260904073302 27 199 0.0 4.8 0.00 0.36 0.00 91 1010.9
20260904073203 27 199 1.6 4.8 0.00 0.36 0.00 91 1011.0
20260904073103 27 199 1.6 4.8 0.00 0.36 0.00 91 1010.9
20260904073003 27 199 1.6 4.8 0.00 0.36 0.00 91 1010.9
20260904072902 27 171 0.0 4.8 0.00 0.36 0.00 91 1011.0
20260904072804 27 171 0.0 4.8 0.00 0.36 0.00 91 1011.0
20260904072702 27 171 0.0 4.8 0.00 0.36 0.00 91 1010.9
20260904072603 27 171 0.0 4.8 0.00 0.36 0.00 91 1010.9
20260904072506 27 171 1.6 4.8 0.00 0.36 0.00 91 1011.0
20260904072403 27 171 1.6 4.8 0.00 0.36 0.00 91 1010.9
20260904072306 27 171 1.6 4.8 0.00 0.36 0.00 91 1011.0
20260904072202 27 168 0.0 4.8 0.00 0.36 0.00 91 1010.9
20260904072103 27 168 1.6 4.8 0.00 0.36 0.00 91 1010.9
20260904072002 27 168 1.6 4.8 0.00 0.36 0.00 91 1011.0
20260904071902 27 168 1.6 4.8 0.00 0.36 0.00 91 1011.0
20260904071801 27 168 1.6 3.2 0.00 0.36 0.00 91 1011.0
20260904071703 27 175 0.0 4.8 0.00 0.36 0.00 91 1011.0
20260904071601 27 175 0.0 4.8 0.00 0.36 0.00 91 1011.1
20260904071503 27 175 1.6 6.4 0.00 0.36 0.00 91 1011.0
20260904071402 27 176 1.6 6.4 0.00 0.36 0.00 91 1011.0
20260904071303 27 176 1.6 6.4 0.00 0.36 0.00 91 1011.1
20260904071202 27 176 1.6 6.4 0.00 0.36 0.00 91 1011.1
20260904071102 27 176 0.0 6.4 0.00 0.36 0.00 91 1011.0
20260904071003 27 176 0.0 6.4 0.00 0.36 0.00 91 1011.1
20260904070902 27 176 1.6 6.4 0.00 0.36 0.00 91 1011.1
20260904070803 27 176 3.2 6.4 0.00 0.36 0.00 90 1011.1
20260904070702 27 180 3.2 6.4 0.00 0.36 0.00 91 1011.0
20260904070603 27 183 3.2 6.4 0.00 0.36 0.00 91 1011.1
20260904070502 27 172 3.2 4.8 0.00 0.36 0.00 91 1011.0
20260904070403 27 168 1.6 4.8 0.00 0.36 0.00 91 1011.1
20260904070303 27 171 1.6 4.8 0.00 0.36 0.00 90 1011.1
20260904070204 27 172 3.2 4.8 0.00 0.36 0.00 90 1011.0
20260904070103 27 178 1.6 4.8 0.00 0.36 0.00 90 1011.1
20260904070003 27 175 1.6 4.8 0.00 0.36 0.00 90 1011.1
20260904065902 27 210 1.6 4.8 0.00 0.36 0.00 90 1011.0
20260904065804 27 212 1.6 6.4 0.00 0.36 0.00 90 1011.0
20260904065703 27 213 1.6 8.0 0.00 0.36 0.00 90 1011.1
20260904065602 27 214 1.6 8.0 0.00 0.36 0.00 90 1011.1
20260904065502 27 214 1.6 8.0 0.00 0.36 0.00 90 1011.1
20260904065403 27 214 1.6 8.0 0.00 0.36 0.00 90 1011.0
20260904065306 27 193 1.6 8.0 0.00 0.36 0.00 90 1011.0
20260904065202 27 193 0.0 8.0 0.00 0.36 0.00 90 1011.0
20260904065103 27 193 1.6 8.0 0.00 0.36 0.00 90 1011.0
20260904065004 27 193 3.2 8.0 0.00 0.36 0.00 90 1011.0
20260904064901 27 190 4.8 8.0 0.00 0.36 0.00 90 1011.0
20260904064802 27 210 3.2 8.0 0.00 0.36 0.00 90 1011.0
20260904064704 27 196 1.6 6.4 0.00 0.36 0.00 90 1011.0
20260904064602 27 197 1.6 6.4 0.00 0.36 0.00 90 1010.9
20260904064503 27 197 3.2 6.4 0.00 0.36 0.00 90 1011.0
20260904064403 27 216 3.2 6.4 0.00 0.36 0.00 90 1011.0
20260904064303 27 217 4.8 6.4 0.00 0.36 0.00 90 1011.0
20260904064202 27 189 4.8 9.7 0.00 0.36 0.00 90 1011.0
20260904064102 27 196 4.8 9.7 0.00 0.36 0.00 90 1011.0
20260904064004 27 217 3.2 9.7 0.00 0.36 0.00 90 1011.0
20260904063901 27 193 1.6 9.7 0.00 0.36 0.00 90 1011.0
20260904063803 27 189 3.2 9.7 0.00 0.36 0.00 90 1011.0
20260904063704 27 189 3.2 9.7 0.00 0.36 0.00 90 1011.1
20260904063602 27 189 3.2 9.7 0.00 0.36 0.00 90 1011.1
20260904063504 27 189 3.2 9.7 0.00 0.36 0.00 90 1011.0
20260904063404 27 199 4.8 9.7 0.00 0.36 0.00 90 1011.0
20260904063302 27 213 4.8 9.7 0.00 0.36 0.00 90 1011.0
20260904063201 27 190 4.8 9.7 0.00 0.36 0.00 90 1011.0
20260904063100 27 221 4.8 9.7 0.00 0.36 0.00 90 1010.9
20260904062959 27 220 3.2 6.4 0.00 0.36 0.00 90 1011.0
20260904062856 27 214 3.2 8.0 0.00 0.36 0.00 90 1010.9
20260904062754 27 216 3.2 8.0 0.00 0.36 0.00 90 1011.0
20260904062653 27 216 4.8 8.0 0.00 0.36 0.00 90 1011.0
20260904062551 27 196 4.8 8.0 0.00 0.36 0.00 90 1011.0
20260904062449 27 200 3.2 8.0 0.00 0.36 0.00 90 1011.0
20260904062347 27 204 1.6 8.0 0.00 0.36 0.00 90 1011.0
20260904062247 27 206 3.2 8.0 0.00 0.36 0.00 90 1011.0
20260904062142 27 207 4.8 8.0 0.00 0.36 0.00 90 1011.0
20260904062040 27 193 4.8 8.0 0.00 0.36 0.00 90 1011.0
20260904061940 27 196 4.8 8.0 0.00 0.36 0.00 90 1011.0
20260904061842 27 180 3.2 8.0 0.00 0.36 0.00 90 1011.0
20260904061740 27 186 3.2 8.0 0.00 0.36 0.00 90 1011.0
20260904061639 27 168 4.8 8.0 0.00 0.36 0.00 90 1011.0
20260904061542 27 197 4.8 8.0 0.00 0.36 0.00 90 1011.0
20260904061441 27 192 3.2 8.0 0.00 0.36 0.00 90 1011.1
20260904061341 27 199 3.2 4.8 0.00 0.36 0.00 90 1011.0
20260904061240 27 200 3.2 4.8 0.00 0.36 0.00 90 1011.0
20260904061141 27 202 1.6 4.8 0.00 0.36 0.00 90 1011.0
20260904061040 27 204 3.2 4.8 0.00 0.36 0.00 90 1011.1
20260904060940 27 197 3.2 4.8 0.00 0.36 0.00 90 1011.1
20260904060842 27 180 3.2 6.4 0.00 0.36 0.00 90 1011.1
20260904060740 27 140 0.0 6.4 0.00 0.36 0.00 90 1011.1
20260904060640 27 130 1.6 6.4 0.00 0.36 0.00 90 1011.2
20260904060540 27 130 1.6 6.4 0.00 0.36 0.00 90 1011.2
20260904060442 27 130 1.6 6.4 0.00 0.36 0.00 90 1011.2
20260904060341 27 128 1.6 6.4 0.00 0.36 0.00 90 1011.2
20260904060241 27 125 1.6 6.4 0.00 0.36 0.00 90 1011.2
20260904060141 27 124 1.6 6.4 0.00 0.36 0.00 90 1011.3
20260904060041 27 123 3.2 6.4 0.00 0.36 0.00 90 1011.3
20260904055940 27 118 3.2 6.4 0.00 0.36 0.00 90 1011.3
20260904055840 27 159 4.8 6.4 0.00 0.36 0.00 90 1011.2
20260904055741 27 141 4.8 6.4 0.00 0.36 0.00 90 1011.3
20260904055640 27 141 1.6 6.4 0.00 0.36 0.00 90 1011.3
20260904055540 27 168 1.6 6.4 0.00 0.36 0.00 90 1011.3
20260904055441 27 168 3.2 6.4 0.00 0.36 0.00 90 1011.3
20260904055340 27 125 3.2 6.4 0.00 0.36 0.00 90 1011.3
20260904055241 27 123 3.2 6.4 0.00 0.36 0.00 90 1011.1
20260904055141 27 133 1.6 8.0 0.00 0.36 0.00 90 1011.2
20260904055041 27 130 1.6 8.0 0.00 0.36 0.00 90 1011.2
20260904054940 27 130 1.6 8.0 0.00 0.36 0.00 90 1011.2
20260904054840 27 131 1.6 8.0 0.00 0.36 0.00 90 1011.2
20260904054741 27 130 3.2 8.0 0.00 0.36 0.00 90 1011.3
20260904054640 27 125 3.2 8.0 0.00 0.36 0.00 90 1011.2
20260904054540 27 161 3.2 8.0 0.00 0.36 0.00 90 1011.3
20260904054441 27 125 3.2 8.0 0.00 0.36 0.00 90 1011.3
20260904054340 27 135 4.8 8.0 0.00 0.36 0.00 90 1011.2
20260904054239 27 133 4.8 8.0 0.00 0.36 0.00 90 1011.2
20260904054139 27 152 3.2 8.0 0.00 0.36 0.00 90 1011.3
20260904054041 27 125 3.2 8.0 0.00 0.36 0.00 90 1011.2
20260904053941 27 134 4.8 8.0 0.00 0.36 0.00 90 1011.2
20260904053839 27 138 3.2 8.0 0.00 0.36 0.00 90 1011.2
20260904053741 27 145 3.2 6.4 0.00 0.36 0.00 90 1011.2
20260904053640 27 141 3.2 6.4 0.00 0.36 0.00 90 1011.2
20260904053540 27 154 3.2 6.4 0.00 0.36 0.00 90 1011.1
20260904053439 27 171 3.2 6.4 0.00 0.36 0.00 90 1011.2
20260904053341 27 157 3.2 6.4 0.00 0.36 0.00 90 1011.2
20260904053239 27 127 1.6 6.4 0.00 0.36 0.00 90 1011.1
20260904053139 27 171 1.6 6.4 0.00 0.36 0.00 90 1011.1
20260904053039 27 131 3.2 6.4 0.00 0.36 0.00 90 1011.1
20260904052940 27 133 3.2 8.0 0.00 0.36 0.00 90 1011.1
20260904052839 27 166 3.2 8.0 0.00 0.36 0.00 90 1011.0
20260904052739 27 128 3.2 8.0 0.00 0.36 0.00 90 1011.1
20260904052641 27 141 3.2 8.0 0.00 0.36 0.00 90 1011.1
20260904052540 27 183 3.2 8.0 0.00 0.36 0.00 90 1011.1
20260904052439 27 147 3.2 8.0 0.00 0.36 0.00 90 1011.1
20260904052340 27 141 1.6 8.0 0.00 0.36 0.00 90 1011.2
20260904052239 27 142 3.2 8.0 0.00 0.36 0.00 90 1011.1
20260904052139 27 142 3.2 8.0 0.00 0.36 0.00 90 1011.1
20260904052039 27 137 4.8 8.0 0.00 0.36 0.00 90 1011.1
20260904051940 27 140 3.2 8.0 0.00 0.36 0.00 90 1011.2
20260904051839 27 169 1.6 8.0 0.00 0.36 0.00 90 1011.1
20260904051739 27 135 1.6 8.0 0.00 0.36 0.00 90 1011.2
20260904051640 27 161 3.2 8.0 0.00 0.36 0.00 90 1011.1
20260904051540 27 142 3.2 8.0 0.00 0.36 0.00 90 1011.1
20260904051439 27 145 3.2 8.0 0.00 0.36 0.00 90 1011.1
20260904051339 27 116 1.6 8.0 0.00 0.36 0.00 90 1011.1
20260904051241 27 106 1.6 8.0 0.00 0.36 0.00 90 1011.1
20260904051140 27 148 4.8 8.0 0.00 0.36 0.00 91 1011.1
20260904051039 27 131 3.2 8.0 0.00 0.36 0.00 91 1011.1
20260904050940 27 152 1.6 8.0 0.00 0.36 0.00 91 1011.1
20260904050839 27 151 3.2 8.0 0.00 0.36 0.00 91 1011.1
20260904050739 27 151 3.2 8.0 0.00 0.36 0.00 91 1011.1
20260904050639 27 104 1.6 8.0 0.00 0.36 0.00 91 1011.1
20260904050540 27 145 3.2 8.0 0.00 0.36 0.00 91 1011.1
20260904050439 27 145 3.2 8.0 0.00 0.36 0.00 91 1011.1
20260904050339 27 131 3.2 8.0 0.00 0.36 0.00 91 1011.1
20260904050241 27 104 3.2 8.0 0.00 0.36 0.00 91 1011.1
20260904050138 27 107 3.2 8.0 0.00 0.36 0.00 91 1011.1
20260904050039 27 120 3.2 8.0 0.00 0.36 0.00 91 1011.0
20260904045940 27 140 4.8 9.7 0.00 0.36 0.36 91 1011.1
20260904045839 27 110 3.2 9.7 0.00 0.36 0.36 91 1011.1
20260904045738 27 117 1.6 9.7 0.00 0.36 0.36 91 1011.1
20260904045638 27 111 3.2 9.7 0.00 0.36 0.36 91 1011.0
20260904045540 27 110 1.6 9.7 0.00 0.36 0.36 91 1011.0
20260904045439 27 109 3.2 9.7 0.00 0.36 0.36 91 1011.0
20260904045340 27 145 3.2 9.7 0.00 0.36 0.36 91 1011.0
20260904045240 27 145 3.2 9.7 0.00 0.36 0.36 91 1011.0
20260904045139 27 135 3.2 9.7 0.00 0.36 0.36 91 1011.0
20260904045038 27 152 4.8 9.7 0.00 0.36 0.36 91 1011.0
20260904044939 27 152 4.8 9.7 0.00 0.36 0.36 91 1011.0
20260904044839 27 134 4.8 9.7 0.00 0.36 0.36 91 1010.9
20260904044740 27 137 3.2 9.7 0.00 0.36 0.36 91 1011.0
20260904044639 27 145 1.6 9.7 0.00 0.36 0.36 91 1011.0
20260904044538 27 124 1.6 9.7 0.00 0.36 0.36 91 1011.1
20260904044440 27 124 3.2 9.7 0.00 0.36 0.36 91 1011.0
20260904044339 27 100 4.8 9.7 0.00 0.36 0.36 91 1011.0
20260904044239 27 148 6.4 9.7 0.00 0.36 0.36 91 1011.0
20260904044138 27 145 4.8 9.7 0.00 0.36 0.36 91 1011.0
20260904044040 27 138 3.2 9.7 0.00 0.36 0.36 91 1011.0
20260904043938 27 104 1.6 6.4 0.00 0.36 0.36 91 1011.0
20260904043839 27 109 1.6 6.4 0.00 0.36 0.36 91 1011.0
20260904043739 27 137 1.6 6.4 0.00 0.36 0.36 91 1011.0
20260904043638 27 133 3.2 6.4 0.00 0.36 0.36 91 1011.1
20260904043538 27 141 3.2 6.4 0.00 0.36 0.36 91 1011.0
20260904043440 27 138 3.2 6.4 0.00 0.36 0.36 91 1011.0
20260904043338 27 161 3.2 4.8 0.00 0.36 0.36 91 1011.1
20260904043238 27 106 1.6 6.4 0.00 0.36 0.36 91 1011.1
20260904043137 27 114 0.0 6.4 0.00 0.36 0.36 91 1011.1
20260904043034 27 99 0.0 6.4 0.00 0.36 0.36 91 1011.1
20260904042933 27 99 0.0 6.4 0.00 0.36 0.36 91 1011.1
20260904042831 27 99 1.6 6.4 0.00 0.36 0.36 91 1011.2
20260904042731 27 97 1.6 6.4 0.00 0.36 0.36 91 1011.1
20260904042632 27 97 1.6 6.4 0.00 0.36 0.36 91 1011.2
20260904042531 27 97 3.2 6.4 0.00 0.36 0.36 91 1011.1
20260904042432 27 130 3.2 6.4 0.00 0.36 0.36 91 1011.2
20260904042333 27 141 3.2 6.4 0.00 0.36 0.36 91 1011.1
20260904042231 27 103 3.2 6.4 0.00 0.36 0.36 91 1011.1
20260904042129 27 148 3.2 6.4 0.00 0.36 0.36 91 1011.1
20260904042026 27 114 3.2 4.8 0.00 0.36 0.36 92 1011.2
20260904041927 27 114 3.2 4.8 0.00 0.36 0.36 92 1011.2
20260904041825 27 92 3.2 4.8 0.00 0.36 0.36 92 1011.1
20260904041724 27 149 3.2 6.4 0.00 0.36 0.36 92 1011.1
20260904041622 27 134 3.2 6.4 0.00 0.36 0.36 92 1011.1
20260904041517 27 104 3.2 6.4 0.00 0.36 0.36 92 1011.2
20260904041418 27 159 3.2 8.0 0.00 0.36 0.36 92 1011.2
20260904041318 27 137 3.2 8.0 0.00 0.36 0.36 92 1011.2
20260904041217 27 94 3.2 8.0 0.00 0.36 0.36 92 1011.2
20260904041114 27 106 3.2 8.0 0.00 0.36 0.36 92 1011.2
20260904041010 27 104 3.2 8.0 0.00 0.36 0.36 92 1011.2
20260904040908 27 103 3.2 8.0 0.00 0.36 0.36 92 1011.2
20260904040807 27 102 3.2 8.0 0.00 0.36 0.36 92 1011.2
20260904040705 27 137 4.8 8.0 0.00 0.36 0.36 92 1011.2
20260904040603 27 131 4.8 8.0 0.00 0.36 0.36 92 1011.2
20260904040503 27 137 3.2 8.0 0.00 0.36 0.36 92 1011.2
20260904040405 27 125 3.2 8.0 0.00 0.36 0.36 92 1011.2
20260904040302 27 125 3.2 8.0 0.00 0.36 0.36 92 1011.2
20260904040202 27 114 3.2 8.0 0.00 0.36 0.36 92 1011.2
20260904040002 27 103 3.2 8.0 0.00 0.36 0.36 92 1011.1
20260904035902 27 141 3.2 8.0 0.00 0.36 0.36 92 1011.1
20260904035804 27 151 3.2 8.0 0.00 0.36 0.36 92 1011.1
20260904035702 27 154 3.2 8.0 0.00 0.36 0.36 92 1011.2
20260904035603 27 131 3.2 8.0 0.00 0.36 0.36 92 1011.1
20260904035502 27 100 3.2 8.0 0.00 0.36 0.36 92 1011.2
20260904035402 27 94 3.2 8.0 0.00 0.36 0.36 92 1011.1
20260904035305 27 138 3.2 8.0 0.00 0.36 0.36 92 1011.1
20260904035203 27 127 3.2 6.4 0.00 0.36 0.36 92 1011.2
20260904035102 27 138 3.2 6.4 0.00 0.36 0.36 92 1011.1
20260904035004 27 161 3.2 6.4 0.00 0.36 0.36 92 1011.1
20260904034902 27 162 3.2 6.4 0.00 0.36 0.36 92 1011.1
20260904034803 27 165 3.2 6.4 0.00 0.36 0.36 92 1011.0
20260904034702 27 176 1.6 6.4 0.00 0.36 0.36 92 1011.1
20260904034604 27 148 1.6 4.8 0.00 0.36 0.36 92 1011.1
20260904034504 27 148 1.6 4.8 0.00 0.36 0.36 92 1011.1
20260904034401 27 148 1.6 4.8 0.00 0.36 0.36 92 1011.1
20260904034303 27 138 1.6 4.8 0.00 0.36 0.36 92 1011.1
20260904034203 27 137 1.6 6.4 0.00 0.36 0.36 92 1011.1
20260904034102 27 138 1.6 6.4 0.00 0.36 0.36 92 1011.2
20260904034002 27 135 0.0 6.4 0.00 0.36 0.36 92 1011.1
20260904033902 27 135 0.0 6.4 0.00 0.36 0.36 92 1011.1
20260904033802 27 135 1.6 6.4 0.00 0.36 0.36 92 1011.1
20260904033701 27 130 1.6 6.4 0.00 0.36 0.36 92 1011.2
20260904033603 27 128 1.6 6.4 0.00 0.36 0.36 92 1011.2
20260904033502 27 128 3.2 6.4 0.00 0.36 0.36 92 1011.1
20260904033404 27 128 3.2 6.4 0.00 0.36 0.36 92 1011.2
20260904033303 27 147 3.2 6.4 0.00 0.36 0.36 92 1011.2
20260904033202 27 134 1.6 6.4 0.00 0.36 0.36 92 1011.2
20260904033103 27 131 1.6 6.4 0.00 0.36 0.36 92 1011.1
20260904033005 27 131 3.2 6.4 0.00 0.36 0.36 92 1011.2
20260904032902 27 131 3.2 6.4 0.00 0.36 0.36 92 1011.2
20260904032802 27 155 3.2 6.4 0.00 0.36 0.36 92 1011.1
20260904032702 27 141 1.6 6.4 0.00 0.36 0.36 92 1011.1
20260904032603 27 130 1.6 6.4 0.00 0.36 0.36 92 1011.2
20260904032504 27 109 1.6 6.4 0.00 0.36 0.36 92 1011.2
20260904032402 27 109 3.2 6.4 0.00 0.36 0.36 92 1011.3
20260904032305 27 102 3.2 6.4 0.00 0.36 0.36 92 1011.2
20260904032203 27 124 3.2 6.4 0.00 0.36 0.36 92 1011.2
20260904032104 27 121 3.2 6.4 0.00 0.36 0.36 92 1011.2
20260904032002 27 118 3.2 6.4 0.00 0.36 0.36 92 1011.2
20260904031903 27 111 3.2 6.4 0.00 0.36 0.36 92 1011.2
20260904031802 27 147 4.8 6.4 0.00 0.36 0.36 92 1011.2
20260904031702 27 144 4.8 6.4 0.00 0.36 0.36 92 1011.2
20260904031602 27 111 4.8 6.4 0.00 0.36 0.36 92 1011.2
20260904031504 27 134 4.8 6.4 0.00 0.36 0.36 92 1011.2
20260904031403 27 103 3.2 6.4 0.00 0.36 0.36 92 1011.2
20260904031302 27 107 3.2 6.4 0.00 0.36 0.36 92 1011.2
20260904031203 27 100 3.2 6.4 0.00 0.36 0.36 92 1011.2
20260904031102 27 120 3.2 6.4 0.00 0.36 0.36 92 1011.1
20260904031004 27 142 3.2 6.4 0.00 0.36 0.36 92 1011.2
20260904030904 27 114 3.2 8.0 0.00 0.36 0.36 92 1011.2
20260904030802 27 149 3.2 8.0 0.00 0.36 0.36 92 1011.2
20260904030702 27 120 3.2 8.0 0.00 0.36 0.36 92 1011.1
20260904030602 27 145 3.2 8.0 0.00 0.36 0.36 92 1011.1
20260904030505 27 135 3.2 8.0 0.00 0.36 0.36 92 1011.1
20260904030403 27 151 3.2 8.0 0.00 0.36 0.36 92 1011.2
20260904030302 27 161 3.2 8.0 0.00 0.36 0.36 91 1011.1
20260904030203 27 130 3.2 8.0 0.00 0.36 0.36 91 1011.1
20260904030103 27 127 3.2 8.0 0.00 0.36 0.36 91 1011.1
20260904030006 27 135 3.2 8.0 0.00 0.36 0.36 91 1011.0
20260904025903 27 169 1.6 8.0 0.00 0.36 0.36 91 1011.1
20260904025803 27 137 3.2 8.0 0.00 0.36 0.36 91 1011.1
20260904025702 27 154 3.2 8.0 0.00 0.36 0.36 91 1011.1
20260904025602 27 155 4.8 8.0 0.00 0.36 0.36 91 1011.1
20260904025505 27 135 3.2 8.0 0.00 0.36 0.36 91 1011.0
20260904025404 27 195 3.2 8.0 0.00 0.36 0.36 91 1011.1
20260904025305 27 148 3.2 8.0 0.00 0.36 0.36 91 1011.1
20260904025203 27 144 1.6 8.0 0.00 0.36 0.36 91 1011.1
20260904025102 27 134 3.2 8.0 0.00 0.36 0.36 91 1011.1
20260904025002 27 134 3.2 8.0 0.00 0.36 0.36 91 1011.1
20260904024902 27 117 3.2 8.0 0.00 0.36 0.36 91 1011.1
20260904024804 27 117 3.2 8.0 0.00 0.36 0.36 91 1011.1
20260904024702 27 128 3.2 8.0 0.00 0.36 0.36 91 1011.0
20260904024603 27 121 3.2 8.0 0.00 0.36 0.36 91 1011.0
20260904024505 27 121 3.2 8.0 0.00 0.36 0.36 91 1011.1
20260904024402 27 140 3.2 8.0 0.00 0.36 0.36 91 1011.0
20260904024302 27 140 3.2 8.0 0.00 0.36 0.36 91 1011.0
20260904024202 27 109 3.2 8.0 0.00 0.36 0.36 91 1011.0
20260904024103 27 109 4.8 9.7 0.00 0.36 0.36 91 1011.0
20260904024002 27 120 3.2 9.7 0.00 0.36 0.36 91 1011.0
20260904023902 27 103 3.2 9.7 0.00 0.36 0.36 91 1011.0
20260904023803 27 130 3.2 9.7 0.00 0.36 0.36 90 1011.0
20260904023702 27 134 3.2 9.7 0.00 0.36 0.36 90 1011.0
20260904023603 27 97 3.2 9.7 0.00 0.36 0.36 90 1010.9
20260904023502 27 133 4.8 9.7 0.00 0.36 0.36 90 1010.9
20260904023402 27 124 4.8 9.7 0.00 0.36 0.36 90 1010.9
20260904023303 27 97 6.4 9.7 0.00 0.36 0.36 90 1010.9
20260904023203 27 117 6.4 9.7 0.00 0.36 0.36 90 1010.9
20260904023103 27 110 4.8 8.0 0.00 0.36 0.36 90 1010.9
20260904023003 27 103 3.2 6.4 0.00 0.36 0.36 90 1010.9
20260904022902 27 62 3.2 8.0 0.00 0.36 0.36 90 1010.9
20260904022804 27 120 3.2 8.0 0.00 0.36 0.36 90 1010.9
20260904022703 27 127 3.2 8.0 0.00 0.36 0.36 90 1010.8
20260904022603 27 97 3.2 8.0 0.00 0.36 0.36 90 1010.8
20260904022502 27 152 3.2 8.0 0.00 0.36 0.36 90 1010.8
20260904022405 27 159 3.2 8.0 0.00 0.36 0.36 90 1010.8
20260904022305 27 113 1.6 8.0 0.00 0.36 0.36 90 1010.8
20260904022201 27 113 1.6 8.0 0.00 0.36 0.36 90 1010.8
20260904022103 27 134 4.8 8.0 0.00 0.36 0.36 90 1010.8
20260904022004 27 113 4.8 8.0 0.00 0.36 0.36 90 1010.8
20260904021902 28 111 4.8 8.0 0.00 0.36 0.36 90 1010.8
20260904021802 28 94 3.2 8.0 0.00 0.36 0.36 90 1010.8
20260904021704 28 164 3.2 8.0 0.00 0.36 0.36 90 1010.6
20260904021601 27 104 1.6 8.0 0.00 0.36 0.36 90 1010.7
20260904021503 28 104 3.2 8.0 0.00 0.36 0.36 90 1010.6
20260904021404 28 113 6.4 9.7 0.00 0.36 0.36 90 1010.6
20260904021304 28 113 6.4 9.7 0.00 0.36 0.36 90 1010.6
20260904021203 28 113 6.4 9.7 0.00 0.36 0.36 90 1010.6
20260904021103 28 113 6.4 9.7 0.00 0.36 0.36 90 1010.6
20260904021004 28 116 6.4 9.7 0.00 0.36 0.36 90 1010.6
20260904020904 28 116 6.4 9.7 0.00 0.36 0.36 90 1010.6
20260904020803 28 116 6.4 9.7 0.00 0.36 0.36 90 1010.5
20260904020648 28 116 6.4 9.7 0.00 0.36 0.36 90 1010.5
20260904020546 28 110 6.4 9.7 0.00 0.36 0.36 90 1010.6
20260904020445 28 116 6.4 9.7 0.00 0.36 0.36 90 1010.5
20260904020343 28 109 6.4 9.7 0.00 0.36 0.36 90 1010.5
20260904020243 28 104 6.4 9.7 0.00 0.36 0.36 90 1010.6
20260904020140 28 107 6.4 9.7 0.00 0.36 0.36 90 1010.5
20260904020041 28 97 6.4 9.7 0.00 0.36 0.36 90 1010.5
20260904015934 28 111 6.4 9.7 0.00 0.36 0.36 90 1010.5
20260904015837 28 104 6.4 9.7 0.00 0.36 0.36 90 1010.5
20260904015735 27 87 4.8 9.7 0.00 0.36 0.36 90 1010.6
20260904015635 27 107 4.8 8.0 0.00 0.36 0.36 90 1010.5
20260904015535 27 109 4.8 8.0 0.00 0.36 0.36 90 1010.6
20260904015435 27 104 4.8 8.0 0.00 0.36 0.36 90 1010.5
20260904015335 27 100 3.2 8.0 0.00 0.36 0.36 90 1010.5
20260904015234 27 99 3.2 8.0 0.00 0.36 0.36 90 1010.5
20260904015135 27 97 4.8 8.0 0.00 0.36 0.36 90 1010.5
20260904015034 27 99 6.4 8.0 0.00 0.36 0.36 90 1010.4
20260904014933 27 104 6.4 8.0 0.00 0.36 0.36 90 1010.5
20260904014835 27 117 6.4 8.0 0.00 0.36 0.36 90 1010.5
20260904014735 27 111 6.4 8.0 0.00 0.36 0.36 90 1010.5
20260904014634 27 104 6.4 8.0 0.00 0.36 0.36 90 1010.5
20260904014535 27 109 6.4 8.0 0.00 0.36 0.36 90 1010.5
20260904014436 27 111 6.4 8.0 0.00 0.36 0.36 90 1010.5
20260904014335 27 111 6.4 8.0 0.00 0.36 0.36 90 1010.4
20260904014235 27 121 4.8 8.0 0.00 0.36 0.36 90 1010.4
20260904014135 27 48 3.2 6.4 0.00 0.36 0.36 90 1010.4
20260904014034 27 35 3.2 4.8 0.00 0.36 0.36 90 1010.4
20260904013934 27 35 3.2 4.8 0.00 0.36 0.36 90 1010.4
20260904013835 27 32 3.2 4.8 0.00 0.36 0.36 90 1010.4
20260904013736 27 23 3.2 4.8 0.00 0.36 0.36 90 1010.3
20260904013634 27 23 1.6 4.8 0.00 0.36 0.36 90 1010.3
20260904013535 27 23 1.6 4.8 0.00 0.36 0.36 90 1010.4
20260904013435 27 23 3.2 4.8 0.00 0.36 0.36 90 1010.4
20260904013335 27 23 3.2 4.8 0.00 0.36 0.36 90 1010.3
20260904013234 27 23 3.2 4.8 0.00 0.36 0.36 90 1010.4
20260904013134 27 23 3.2 4.8 0.00 0.36 0.36 90 1010.3
20260904013035 27 23 3.2 4.8 0.00 0.36 0.36 90 1010.3
20260904012934 27 23 3.2 4.8 0.00 0.36 0.36 90 1010.3
20260904012835 27 23 3.2 4.8 0.00 0.36 0.36 90 1010.3
20260904012735 27 23 3.2 3.2 0.00 0.36 0.36 90 1010.3
20260904012634 27 23 1.6 3.2 0.00 0.36 0.36 90 1010.3
20260904012534 27 18 0.0 0.0 0.00 0.36 0.36 90 1010.2
20260904012435 27 20 0.0 0.0 0.00 0.36 0.36 89 1010.3
20260904012335 27 20 0.0 0.0 0.00 0.36 0.36 89 1010.3
20260904012234 27 20 0.0 0.0 0.00 0.36 0.36 89 1010.3
20260904012134 27 20 0.0 0.0 0.00 0.36 0.36 89 1010.2
20260904012035 27 20 0.0 0.0 0.00 0.36 0.36 89 1010.3
20260904011933 27 21 0.0 0.0 0.00 0.36 0.36 89 1010.2
20260904011833 27 21 0.0 0.0 0.00 0.36 0.36 89 1010.2
20260904011734 27 23 0.0 0.0 0.00 0.36 0.36 89 1010.3
20260904011634 27 23 0.0 1.6 0.00 0.36 0.36 89 1010.3
20260904011533 27 23 0.0 3.2 0.00 0.36 0.36 89 1010.3
20260904011433 27 23 0.0 3.2 0.00 0.36 0.36 89 1010.3
20260904011336 27 23 0.0 4.8 0.00 0.36 0.36 89 1010.3
20260904011234 27 23 0.0 4.8 0.00 0.36 0.36 89 1010.2
20260904011135 27 23 0.0 4.8 0.00 0.36 0.36 89 1010.3
20260904011034 27 23 0.0 4.8 0.00 0.36 0.36 89 1010.2
20260904010934 27 23 0.0 4.8 0.00 0.36 0.36 89 1010.2
20260904010834 27 23 0.0 4.8 0.00 0.36 0.36 88 1010.2
20260904010734 27 23 1.6 4.8 0.00 0.36 0.36 88 1010.2
20260904010634 27 23 1.6 4.8 0.00 0.36 0.36 88 1010.1
20260904010533 27 23 3.2 4.8 0.00 0.36 0.36 88 1010.1
20260904010434 27 23 3.2 4.8 0.00 0.36 0.36 88 1010.2
20260904010334 27 23 3.2 4.8 0.00 0.36 0.36 88 1010.2
20260904010234 27 23 3.2 4.8 0.00 0.36 0.36 88 1010.2
20260904010133 27 23 3.2 4.8 0.00 0.36 0.36 88 1010.1
20260904010033 27 23 3.2 4.8 0.00 0.36 0.36 88 1010.2
20260904005934 27 23 3.2 4.8 0.00 0.36 0.36 88 1010.2
20260904005834 27 23 4.8 4.8 0.00 0.36 0.36 88 1010.2
20260904005734 27 23 3.2 4.8 0.00 0.36 0.36 88 1010.1
20260904005636 27 23 0.0 4.8 0.00 0.36 0.36 88 1010.2
20260904005533 27 23 0.0 4.8 0.00 0.36 0.36 88 1010.2
20260904005434 27 23 0.0 4.8 0.00 0.36 0.36 88 1010.2
20260904005333 27 23 0.0 4.8 0.00 0.36 0.36 88 1010.2
20260904005234 27 23 0.0 4.8 0.00 0.36 0.36 88 1010.2
20260904005133 27 23 0.0 6.4 0.00 0.36 0.36 88 1010.2
20260904005033 27 23 1.6 6.4 0.00 0.36 0.36 87 1010.2
20260904004934 27 23 3.2 6.4 0.00 0.36 0.36 87 1010.2
20260904004833 27 23 3.2 6.4 0.00 0.36 0.36 87 1010.2
20260904004733 27 23 3.2 6.4 0.00 0.36 0.36 87 1010.2
20260904004633 27 23 1.6 6.4 0.00 0.36 0.36 87 1010.1
20260904004535 28 23 3.2 6.4 0.00 0.36 0.36 87 1010.2
20260904004433 28 23 3.2 6.4 0.00 0.36 0.36 87 1010.2
20260904004333 28 23 3.2 6.4 0.00 0.36 0.36 87 1010.1
20260904004234 28 23 3.2 6.4 0.00 0.36 0.36 87 1010.1
20260904004133 28 21 3.2 4.8 0.00 0.36 0.36 87 1010.1
20260904004033 28 21 1.6 4.8 0.00 0.36 0.36 87 1010.2
20260904003932 28 18 0.0 0.0 0.00 0.36 0.36 87 1010.1
20260904003833 28 13 0.0 0.0 0.00 0.36 0.36 87 1010.2
20260904003733 28 13 0.0 0.0 0.00 0.36 0.36 87 1010.1
20260904003633 28 11 0.0 0.0 0.00 0.36 0.36 87 1010.1
20260904003534 28 11 0.0 0.0 0.00 0.36 0.36 87 1010.2
20260904003433 28 11 0.0 0.0 0.00 0.36 0.36 87 1010.1
20260904003335 28 11 0.0 0.0 0.00 0.36 0.36 86 1010.2
20260904003234 28 6 0.0 0.0 0.00 0.36 0.36 86 1010.1
20260904003133 28 6 0.0 0.0 0.00 0.36 0.36 86 1010.2
20260904003033 28 6 0.0 0.0 0.00 0.36 0.36 86 1010.2
20260904002932 28 6 0.0 0.0 0.00 0.36 0.36 86 1010.2
20260904002834 28 6 0.0 0.0 0.00 0.36 0.36 86 1010.3
20260904002732 28 6 0.0 0.0 0.00 0.36 0.36 86 1010.2
20260904002632 28 6 0.0 0.0 0.00 0.36 0.36 86 1010.2
20260904002531 28 6 0.0 0.0 0.00 0.36 0.36 86 1010.3
20260904002433 28 6 0.0 0.0 0.00 0.36 0.36 86 1010.2
20260904002332 28 6 0.0 0.0 0.00 0.36 0.36 86 1010.2
20260904002232 28 6 0.0 0.0 0.00 0.36 0.36 86 1010.2
20260904002131 28 6 0.0 0.0 0.00 0.36 0.36 85 1010.3
20260904002031 28 6 0.0 0.0 0.00 0.36 0.36 85 1010.2
20260904001931 28 6 0.0 0.0 0.00 0.36 0.36 85 1010.2
20260904001831 28 6 0.0 0.0 0.00 0.36 0.36 85 1010.2
20260904001732 28 6 0.0 0.0 0.00 0.36 0.36 85 1010.3
20260904001631 28 6 0.0 0.0 0.00 0.36 0.36 85 1010.3
20260904001533 28 6 0.0 0.0 0.00 0.36 0.36 85 1010.3
20260904001431 28 6 0.0 0.0 0.00 0.36 0.36 84 1010.3
20260904001332 28 6 0.0 0.0 0.00 0.36 0.36 85 1010.3
20260904001232 28 6 0.0 0.0 0.00 0.36 0.36 84 1010.3
20260904001131 28 6 0.0 0.0 0.00 0.36 0.36 84 1010.2
20260904001032 28 6 0.0 0.0 0.00 0.36 0.36 84 1010.3
20260904000931 28 6 0.0 0.0 0.00 0.36 0.36 84 1010.3
20260904000832 28 6 0.0 0.0 0.00 0.36 0.36 84 1010.3
20260904000719 28 6 0.0 0.0 0.00 0.36 0.36 84 1010.3
20260904000616 28 6 0.0 0.0 0.00 0.36 0.36 84 1010.3
20260904000515 28 6 0.0 0.0 0.00 0.36 0.36 84 1010.3
20260904000413 28 6 0.0 0.0 0.00 0.36 0.36 84 1010.3
20260904000311 28 6 0.0 0.0 0.00 0.36 0.36 84 1010.3
20260904000211 28 6 0.0 0.0 0.00 0.36 0.36 84 1010.4
20260904000109 28 7 0.0 0.0 0.00 0.36 0.36 84 1010.3
20260904000007 28 7 0.0 0.0 0.00 0.36 0.36 85 1010.4
20260903235905 28 7 0.0 0.0 0.00 0.36 0.36 85 1010.3
20260903235804 28 7 0.0 0.0 0.00 0.36 0.36 85 1010.4
20260903235703 28 7 0.0 0.0 0.00 0.36 0.36 85 1010.4
20260903235603 28 7 0.0 0.0 0.00 0.36 0.36 85 1010.4
20260903235502 28 7 0.0 0.0 0.00 0.36 0.36 85 1010.4
20260903235404 28 7 0.0 0.0 0.00 0.36 0.36 85 1010.4
20260903235305 28 7 0.0 0.0 0.00 0.36 0.36 85 1010.4
20260903235205 28 7 0.0 0.0 0.00 0.36 0.36 85 1010.5
20260903235101 28 10 0.0 0.0 0.00 0.36 0.36 85 1010.4
20260903235004 28 11 0.0 0.0 0.00 0.36 0.36 85 1010.4
20260903234902 28 11 0.0 0.0 0.00 0.36 0.36 85 1010.4
20260903234802 28 11 0.0 0.0 0.00 0.36 0.36 85 1010.4
20260903234702 28 11 0.0 0.0 0.00 0.36 0.36 85 1010.3
20260903234603 28 11 0.0 0.0 0.00 0.36 0.36 85 1010.5
20260903234503 28 11 0.0 0.0 0.00 0.36 0.36 85 1010.4
20260903234403 28 11 0.0 0.0 0.00 0.36 0.36 86 1010.5
20260903234302 28 11 0.0 0.0 0.00 0.36 0.36 86 1010.4
20260903234204 28 11 0.0 0.0 0.00 0.36 0.36 86 1010.4
20260903234102 28 11 0.0 0.0 0.00 0.36 0.36 86 1010.4
20260903234004 28 11 0.0 0.0 0.00 0.36 0.36 86 1010.4
20260903233901 28 11 0.0 0.0 0.00 0.36 0.36 86 1010.4
20260903233802 28 11 0.0 0.0 0.00 0.36 0.36 85 1010.4
20260903233703 28 11 0.0 0.0 0.00 0.36 0.36 85 1010.5
20260903233602 28 11 0.0 0.0 0.00 0.36 0.36 85 1010.4
20260903233502 28 11 0.0 0.0 0.00 0.36 0.36 85 1010.5
20260903233402 28 11 0.0 0.0 0.00 0.36 0.36 85 1010.5
20260903233302 28 11 0.0 0.0 0.00 0.36 0.36 85 1010.4
20260903233203 28 11 0.0 0.0 0.00 0.36 0.36 85 1010.4
20260903233102 28 11 0.0 0.0 0.00 0.36 0.36 85 1010.4
20260903233004 28 11 0.0 0.0 0.00 0.36 0.36 85 1010.4
20260903232903 28 11 0.0 0.0 0.00 0.36 0.36 85 1010.5
20260903232803 28 11 0.0 0.0 0.00 0.36 0.36 85 1010.4
20260903232703 28 11 0.0 0.0 0.00 0.36 0.36 85 1010.4
20260903232602 28 11 0.0 0.0 0.00 0.36 0.36 84 1010.3
20260903232503 28 11 0.0 0.0 0.00 0.36 0.36 84 1010.4
20260903232401 28 11 0.0 0.0 0.00 0.36 0.36 84 1010.4
20260903232305 28 11 0.0 0.0 0.00 0.36 0.36 84 1010.4
20260903232202 28 11 0.0 1.6 0.00 0.36 0.36 84 1010.5
20260903232102 28 11 0.0 3.2 0.00 0.36 0.36 85 1010.4
20260903232003 28 11 0.0 3.2 0.00 0.36 0.36 85 1010.4
20260903231903 28 11 0.0 3.2 0.00 0.36 0.36 85 1010.5
20260903231803 28 11 0.0 3.2 0.00 0.36 0.36 85 1010.4
20260903231703 28 11 0.0 3.2 0.00 0.36 0.36 84 1010.5
20260903231603 28 11 0.0 4.8 0.00 0.36 0.36 85 1010.5
20260903231501 28 11 0.0 4.8 0.00 0.36 0.36 85 1010.6
20260903231359 28 11 0.0 4.8 0.00 0.36 0.36 85 1010.5
20260903231256 28 11 1.6 4.8 0.00 0.36 0.36 85 1010.5
20260903231157 28 11 1.6 4.8 0.00 0.36 0.36 85 1010.5
20260903231055 28 11 1.6 4.8 0.00 0.36 0.36 85 1010.4
20260903230954 28 11 1.6 4.8 0.00 0.36 0.36 85 1010.5
20260903230852 28 11 1.6 4.8 0.00 0.36 0.36 85 1010.5
20260903230749 28 11 3.2 4.8 0.00 0.36 0.36 84 1010.5
20260903230649 28 11 1.6 4.8 0.00 0.36 0.36 84 1010.5
20260903230549 28 30 1.6 4.8 0.00 0.36 0.36 85 1010.5
20260903230447 28 30 1.6 4.8 0.00 0.36 0.36 85 1010.5
20260903230345 28 30 1.6 4.8 0.00 0.36 0.36 84 1010.4
20260903230241 28 30 3.2 4.8 0.00 0.36 0.36 84 1010.5
20260903230140 28 30 3.2 4.8 0.00 0.36 0.36 84 1010.5
20260903230041 28 31 3.2 4.8 0.00 0.36 0.36 84 1010.4
20260903225939 28 31 3.2 4.8 0.00 0.36 0.36 84 1010.4
20260903225837 28 31 1.6 4.8 0.00 0.36 0.36 84 1010.4
20260903225731 28 86 0.0 4.8 0.00 0.36 0.36 84 1010.3
20260903225632 28 86 0.0 6.4 0.00 0.36 0.36 84 1010.3
20260903225532 28 86 1.6 8.0 0.00 0.36 0.36 84 1010.4
20260903225431 28 87 3.2 8.0 0.00 0.36 0.36 83 1010.4
20260903225331 28 87 1.6 8.0 0.00 0.36 0.36 84 1010.5
20260903225230 28 87 0.0 8.0 0.00 0.36 0.36 84 1010.4
20260903225131 28 87 0.0 8.0 0.00 0.36 0.36 84 1010.4
20260903225032 28 87 1.6 9.7 0.00 0.36 0.36 84 1010.4
20260903224931 28 87 3.2 9.7 0.00 0.36 0.36 84 1010.4
20260903224832 28 86 4.8 9.7 0.00 0.36 0.36 84 1010.4
20260903224732 28 86 4.8 9.7 0.00 0.36 0.36 84 1010.4
20260903224631 28 85 6.4 9.7 0.00 0.36 0.36 84 1010.4
20260903224531 28 92 6.4 11.3 0.00 0.36 0.36 84 1010.4
20260903224431 28 55 6.4 11.3 0.00 0.36 0.36 84 1010.4
20260903224330 28 55 6.4 11.3 0.00 0.36 0.36 84 1010.4
20260903224230 28 62 6.4 11.3 0.00 0.36 0.36 84 1010.4
20260903224131 28 49 6.4 11.3 0.00 0.36 0.36 84 1010.3
20260903224030 28 89 6.4 11.3 0.00 0.36 0.36 84 1010.3
20260903223931 28 87 6.4 11.3 0.00 0.36 0.36 84 1010.4
20260903223832 28 61 6.4 11.3 0.00 0.36 0.36 84 1010.4
20260903223732 28 73 8.0 11.3 0.00 0.36 0.36 84 1010.4
20260903223631 28 90 8.0 11.3 0.00 0.36 0.36 84 1010.4
20260903223531 28 83 8.0 11.3 0.00 0.36 0.36 85 1010.3
20260903223431 28 71 8.0 11.3 0.00 0.36 0.36 85 1010.4
20260903223330 28 102 9.7 11.3 0.00 0.36 0.36 84 1010.5
20260903223230 28 92 9.7 11.3 0.00 0.36 0.36 85 1010.4
20260903223131 28 96 9.7 11.3 0.00 0.36 0.36 85 1010.4
20260903223032 28 97 9.7 11.3 0.00 0.36 0.36 85 1010.4
20260903222931 28 109 6.4 9.7 0.00 0.36 0.36 85 1010.4
20260903222831 28 96 6.4 9.7 0.00 0.36 0.36 85 1010.4
20260903222732 27 86 6.4 9.7 0.00 0.36 0.36 85 1010.4
20260903222631 28 80 6.4 8.0 0.00 0.36 0.36 85 1010.4
20260903222530 27 65 6.4 6.4 0.00 0.36 0.36 85 1010.3
20260903222430 27 63 6.4 6.4 0.00 0.36 0.36 85 1010.3
20260903222332 27 62 6.4 6.4 0.00 0.36 0.36 85 1010.3
20260903222230 27 62 4.8 8.0 0.00 0.36 0.36 85 1010.5
20260903222130 27 61 3.2 8.0 0.00 0.36 0.36 85 1010.5
20260903222031 27 59 3.2 8.0 0.00 0.36 0.36 85 1010.4
20260903221931 27 59 3.2 8.0 0.00 0.36 0.36 85 1010.4
20260903221830 27 59 3.2 8.0 0.00 0.36 0.36 85 1010.5
20260903221730 27 59 4.8 8.0 0.00 0.36 0.36 85 1010.5
20260903221632 27 58 3.2 8.0 0.00 0.36 0.36 85 1010.5
20260903221531 27 54 3.2 8.0 0.00 0.36 0.36 85 1010.5
20260903221429 27 54 4.8 8.0 0.00 0.36 0.36 85 1010.5
20260903221329 27 54 4.8 8.0 0.00 0.36 0.36 85 1010.5
20260903221230 27 48 3.2 6.4 0.00 0.36 0.36 86 1010.5
20260903221130 27 45 3.2 6.4 0.00 0.36 0.36 85 1010.5
20260903221030 27 45 3.2 6.4 0.00 0.36 0.36 85 1010.5
20260903220931 27 45 3.2 6.4 0.00 0.36 0.36 85 1010.5
20260903220830 27 45 3.2 6.4 0.00 0.36 0.36 85 1010.5
20260903220729 27 45 3.2 6.4 0.00 0.36 0.36 85 1010.6
20260903220630 27 45 4.8 6.4 0.00 0.36 0.36 85 1010.6
20260903220529 27 45 3.2 6.4 0.00 0.36 0.36 85 1010.6
20260903220429 27 44 3.2 6.4 0.00 0.36 0.36 85 1010.7
20260903220329 27 44 3.2 6.4 0.00 0.36 0.36 85 1010.8
20260903220230 27 44 3.2 6.4 0.00 0.36 0.36 85 1010.8
20260903220130 27 44 4.8 6.4 0.00 0.36 0.36 85 1010.8
20260903220029 27 44 4.8 6.4 0.00 0.36 0.36 85 1010.7
20260903215931 27 76 4.8 6.4 0.00 0.36 0.36 85 1010.9
20260903215829 27 73 3.2 9.7 0.00 0.36 0.36 85 1010.8
20260903215729 27 56 3.2 9.7 0.00 0.36 0.36 85 1010.9
20260903215629 27 56 3.2 9.7 0.00 0.36 0.36 85 1010.8
20260903215531 27 56 3.2 9.7 0.00 0.36 0.36 85 1010.9
20260903215429 27 56 3.2 9.7 0.00 0.36 0.36 85 1010.9
20260903215329 27 56 3.2 11.3 0.00 0.36 0.36 85 1011.0
20260903215230 27 56 4.8 11.3 0.00 0.36 0.36 85 1011.1
20260903215130 27 56 4.8 11.3 0.00 0.36 0.36 85 1011.0
20260903215029 27 56 6.4 11.3 0.00 0.36 0.36 85 1011.1
20260903214929 27 56 6.4 11.3 0.00 0.36 0.36 85 1011.0
20260903214831 27 62 6.4 11.3 0.00 0.36 0.36 85 1011.1
20260903214729 27 59 6.4 11.3 0.00 0.36 0.36 85 1011.1
20260903214629 27 62 6.4 11.3 0.00 0.36 0.36 85 1011.0
20260903214530 27 63 8.0 11.3 0.00 0.36 0.36 85 1011.1
20260903214429 27 48 6.4 11.3 0.00 0.36 0.36 85 1011.1
20260903214328 27 47 6.4 9.7 0.00 0.36 0.36 85 1011.1
20260903214229 27 37 4.8 11.3 0.00 0.36 0.36 85 1011.1
20260903214130 27 54 4.8 11.3 0.00 0.36 0.36 85 1011.1
20260903214031 27 48 8.0 11.3 0.00 0.36 0.36 85 1011.2
20260903213930 27 48 8.0 11.3 0.00 0.36 0.36 85 1011.1
20260903213832 27 62 8.0 11.3 0.00 0.36 0.36 85 1011.2
20260903213729 27 35 6.4 11.3 0.00 0.36 0.36 85 1011.1
20260903213630 27 39 6.4 11.3 0.00 0.36 0.36 85 1011.2
20260903213529 27 34 6.4 11.3 0.00 0.36 0.36 85 1011.1
20260903213430 27 47 8.0 11.3 0.00 0.36 0.36 85 1011.1
20260903213329 27 34 8.0 11.3 0.00 0.36 0.36 85 1011.1
20260903213229 27 44 8.0 14.5 0.00 0.36 0.36 85 1011.1
20260903213131 27 51 6.4 14.5 0.00 0.36 0.36 85 1011.2
20260903213030 27 38 6.4 14.5 0.00 0.36 0.36 85 1011.2
20260903212929 27 23 6.4 14.5 0.00 0.36 0.36 85 1011.2
20260903212831 27 41 8.0 14.5 0.00 0.36 0.36 86 1011.2
20260903212730 27 45 8.0 14.5 0.00 0.36 0.36 86 1011.3
20260903212628 27 56 6.4 14.5 0.00 0.36 0.36 86 1011.3
20260903212530 27 97 6.4 14.5 0.00 0.36 0.36 86 1011.4
20260903212429 27 61 8.0 16.1 0.00 0.36 0.36 86 1011.3
20260903212329 27 63 8.0 16.1 0.00 0.36 0.36 86 1011.4
20260903212229 27 61 6.4 16.1 0.00 0.36 0.36 86 1011.3
20260903212129 27 59 8.0 16.1 0.00 0.36 0.36 86 1011.4
20260903212030 27 75 8.0 16.1 0.00 0.36 0.36 87 1011.4
20260903211929 27 61 6.4 16.1 0.00 0.36 0.36 87 1011.4
20260903211829 27 48 9.7 16.1 0.00 0.36 0.36 87 1011.4
20260903211729 27 45 9.7 16.1 0.00 0.36 0.36 87 1011.4
20260903211628 27 37 9.7 19.3 0.00 0.36 0.36 87 1011.4
20260903211528 27 39 8.0 19.3 0.00 0.36 0.36 87 1011.4
20260903211430 27 44 8.0 19.3 0.00 0.36 0.36 88 1011.4
20260903211328 27 61 9.7 19.3 0.00 0.36 0.36 88 1011.4
20260903211228 27 47 8.0 19.3 0.00 0.36 0.36 88 1011.5
20260903211128 27 62 4.8 19.3 0.00 0.36 0.36 88 1011.4
20260903211030 27 56 6.4 19.3 0.00 0.36 0.36 88 1011.5
20260903210930 26 45 9.7 19.3 0.00 0.36 0.36 89 1011.5
20260903210829 26 59 11.3 19.3 0.00 0.36 0.36 89 1011.6
20260903210728 26 32 12.9 19.3 0.00 0.36 0.36 89 1011.6
20260903210629 26 32 14.5 19.3 0.00 0.36 0.36 89 1011.7
20260903210530 27 37 14.5 19.3 0.00 0.36 0.36 89 1011.6
20260903210428 27 27 11.3 22.5 0.00 0.36 0.36 90 1011.7
20260903210331 27 51 9.7 22.5 0.00 0.36 0.36 90 1011.7
20260903210228 27 20 9.7 22.5 0.00 0.36 0.36 90 1011.8
20260903210128 27 32 11.3 22.5 0.00 0.36 0.36 89 1011.7
20260903210031 27 25 12.9 22.5 0.00 0.36 0.36 89 1011.8
20260903205929 27 62 11.3 22.5 0.00 0.36 0.36 89 1011.7
20260903205829 27 42 11.3 22.5 0.00 0.36 0.36 89 1011.7
20260903205730 27 27 11.3 22.5 0.00 0.36 0.36 89 1011.7
20260903205630 27 27 12.9 22.5 0.00 0.36 0.36 89 1011.8
20260903205528 27 41 11.3 22.5 0.00 0.36 0.36 89 1011.8
20260903205429 27 16 9.7 16.1 0.00 0.36 0.36 89 1011.7
20260903205331 27 49 8.0 16.1 0.00 0.36 0.36 89 1011.6
20260903205229 27 6 6.4 14.5 0.00 0.36 0.36 89 1011.6
20260903205129 27 14 6.4 14.5 0.00 0.36 0.36 89 1011.6
20260903205030 27 0 8.0 14.5 0.00 0.36 0.36 89 1011.6
20260903204930 27 0 8.0 14.5 0.00 0.36 0.36 89 1011.6
20260903204827 27 3 8.0 11.3 0.00 0.36 0.36 89 1011.6
20260903204727 27 0 8.0 11.3 0.00 0.36 0.36 89 1011.6
20260903204629 27 23 8.0 11.3 0.00 0.36 0.36 89 1011.7
20260903204529 27 1 6.4 11.3 0.00 0.36 0.36 89 1011.7
20260903204427 27 20 8.0 11.3 0.00 0.36 0.36 89 1011.7
20260903204327 27 0 8.0 11.3 0.00 0.36 0.36 89 1011.8
20260903204227 27 0 6.4 11.3 0.00 0.36 0.36 89 1011.9
20260903204127 27 21 6.4 11.3 0.00 0.36 0.36 89 1011.9
20260903204028 27 23 6.4 11.3 0.00 0.36 0.36 89 1011.9
20260903203928 27 18 8.0 11.3 0.00 0.36 0.36 88 1011.8
20260903203828 27 0 8.0 11.3 0.00 0.36 0.36 88 1011.8
20260903203729 27 4 9.7 14.5 0.00 0.36 0.36 88 1011.8
20260903203627 27 355 9.7 14.5 0.00 0.36 0.36 88 1011.9
20260903203527 27 0 9.7 14.5 0.00 0.36 0.36 88 1011.9
20260903203427 27 10 8.0 14.5 0.00 0.36 0.36 88 1011.8
20260903203327 27 25 9.7 14.5 0.00 0.36 0.36 88 1011.8
20260903203229 27 358 9.7 14.5 0.00 0.36 0.36 88 1011.8
20260903203127 27 25 8.0 14.5 0.00 0.36 0.36 88 1011.7
20260903203027 27 6 8.0 14.5 0.00 0.36 0.36 88 1011.7
20260903202930 27 0 8.0 14.5 0.00 0.36 0.36 88 1011.6
20260903202829 27 0 9.7 14.5 0.00 0.36 0.36 88 1011.7
20260903202728 27 4 9.7 14.5 0.00 0.36 0.36 88 1011.6
20260903202627 27 16 9.7 14.5 0.00 0.36 0.36 88 1011.6
20260903202528 27 1 8.0 14.5 0.00 0.36 0.36 88 1011.5
20260903202427 27 355 8.0 14.5 0.00 0.36 0.36 87 1011.5
20260903202327 27 1 9.7 14.5 0.00 0.36 0.36 87 1011.5
20260903202229 27 0 8.0 11.3 0.00 0.36 0.36 87 1011.5
20260903202129 27 0 6.4 11.3 0.00 0.36 0.36 87 1011.5
20260903202027 27 0 4.8 11.3 0.00 0.36 0.36 87 1011.5
20260903201927 27 0 4.8 11.3 0.00 0.36 0.36 87 1011.6
20260903201829 27 0 6.4 11.3 0.00 0.36 0.36 87 1011.5
20260903201727 27 3 6.4 11.3 0.00 0.36 0.36 87 1011.6
20260903201627 27 0 8.0 11.3 0.00 0.36 0.36 87 1011.5
20260903201528 27 24 8.0 11.3 0.00 0.36 0.36 87 1011.6
20260903201426 27 4 6.4 11.3 0.00 0.36 0.36 87 1011.6
20260903201326 27 0 4.8 11.3 0.00 0.36 0.36 87 1011.6
20260903201227 27 0 6.4 11.3 0.00 0.36 0.36 86 1011.6
20260903201129 27 0 6.4 11.3 0.00 0.36 0.36 86 1011.6
20260903201027 27 10 6.4 11.3 0.00 0.36 0.36 86 1011.6
20260903200927 27 17 8.0 11.3 0.00 0.36 0.36 86 1011.6
20260903200827 27 1 8.0 11.3 0.00 0.36 0.36 86 1011.7
20260903200727 27 24 8.0 11.3 0.00 0.36 0.36 85 1011.7
20260903200625 27 30 9.7 11.3 0.00 0.36 0.36 85 1011.7
20260903200523 27 3 8.0 11.3 0.00 0.36 0.36 85 1011.8
20260903200423 27 21 6.4 11.3 0.00 0.36 0.36 84 1011.7
20260903200318 27 18 6.4 11.3 0.00 0.36 0.36 84 1011.8
20260903200215 27 13 6.4 11.3 0.00 0.36 0.36 84 1011.7
20260903200113 27 8 6.4 11.3 0.00 0.36 0.36 84 1011.8
20260903200014 27 10 6.4 11.3 0.00 0.36 0.36 83 1011.5
20260903195916 27 0 6.4 11.3 0.00 0.36 0.36 83 1011.6
20260903195812 27 0 4.8 11.3 0.00 0.36 0.36 83 1011.6
20260903195712 27 327 6.4 14.5 0.00 0.36 0.36 82 1011.4
20260903195610 27 354 6.4 14.5 0.00 0.36 0.36 82 1011.5
20260903195508 27 333 4.8 14.5 0.00 0.36 0.36 82 1011.5
20260903195407 26 329 6.4 14.5 0.00 0.36 0.36 82 1011.6
20260903195306 26 336 6.4 14.5 0.00 0.36 0.36 83 1011.5
20260903195204 26 353 6.4 14.5 0.00 0.36 0.36 83 1011.6
20260903195103 26 357 8.0 14.5 0.00 0.36 0.36 83 1011.5
20260903195002 26 0 8.0 14.5 0.00 0.36 0.36 83 1011.6
20260903194903 26 350 9.7 14.5 0.00 0.36 0.36 83 1011.6
20260903194804 26 324 9.7 14.5 0.00 0.36 0.36 83 1011.6
20260903194703 26 345 8.0 14.5 0.00 0.36 0.36 84 1011.6
20260903194603 26 333 6.4 11.3 0.00 0.36 0.36 84 1011.7
20260903194504 26 341 4.8 11.3 0.00 0.36 0.36 84 1011.7
20260903194403 26 327 6.4 11.3 0.00 0.36 0.36 84 1011.7
20260903194301 26 1 8.0 14.5 0.00 0.36 0.36 84 1011.8
20260903194202 26 341 8.0 14.5 0.00 0.36 0.36 84 1011.7
20260903194103 26 350 6.4 14.5 0.00 0.36 0.36 84 1011.7
20260903194004 26 340 8.0 14.5 0.00 0.36 0.36 84 1011.7
20260903193903 26 340 8.0 14.5 0.00 0.36 0.36 84 1011.7
20260903193804 26 340 8.0 14.5 0.00 0.36 0.36 84 1011.8
20260903193704 26 340 8.0 14.5 0.00 0.36 0.36 84 1011.8
20260903193556 26 333 8.0 14.5 0.00 0.36 0.36 84 1011.8
20260903193455 26 357 8.0 14.5 0.00 0.36 0.36 84 1011.9
20260903193353 26 350 6.4 14.5 0.00 0.36 0.36 84 1011.9
20260903193251 26 0 6.4 9.7 0.00 0.36 0.36 84 1011.9
20260903193149 26 330 6.4 9.7 0.00 0.36 0.36 84 1011.9
20260903193048 26 0 8.0 9.7 0.00 0.36 0.36 84 1012.0
20260903192942 26 334 8.0 9.7 0.00 0.36 0.36 84 1012.0
20260903192841 26 348 8.0 9.7 0.00 0.36 0.36 84 1011.8
20260903192739 26 296 6.4 9.7 0.00 0.36 0.36 84 1011.9
20260903192638 26 306 6.4 9.7 0.00 0.36 0.36 84 1011.9
20260903192538 27 303 6.4 9.7 0.00 0.36 0.36 84 1011.9
20260903192435 26 300 6.4 9.7 0.00 0.36 0.36 84 1011.8
20260903192335 27 305 6.4 11.3 0.00 0.36 0.36 84 1011.9
20260903192231 26 329 8.0 11.3 0.00 0.36 0.36 84 1011.8
20260903192132 26 327 6.4 11.3 0.00 0.36 0.36 84 1011.8
20260903192030 26 323 6.4 11.3 0.00 0.36 0.36 84 1011.8
20260903191932 26 312 4.8 11.3 0.00 0.36 0.36 84 1011.8
20260903191831 26 336 4.8 11.3 0.00 0.36 0.36 84 1011.8
20260903191731 26 329 6.4 11.3 0.00 0.36 0.36 84 1011.7
20260903191631 26 329 6.4 11.3 0.00 0.36 0.36 84 1011.7
20260903191532 26 310 6.4 11.3 0.00 0.36 0.36 84 1011.8
20260903191431 26 341 6.4 14.5 0.00 0.36 0.36 84 1011.7
20260903191331 26 333 6.4 14.5 0.00 0.36 0.36 85 1011.7
20260903191231 26 331 8.0 16.1 0.00 0.36 0.36 85 1011.7
20260903191130 26 333 8.0 16.1 0.00 0.36 0.36 85 1011.8
20260903191028 26 4 6.4 16.1 0.00 0.36 0.36 86 1011.7
20260903190928 26 0 6.4 16.1 0.00 0.36 0.36 86 1011.7
20260903190825 26 0 6.4 16.1 0.00 0.36 0.36 86 1011.7
20260903190725 26 0 8.0 16.1 0.00 0.36 0.36 86 1011.8
20260903190626 26 333 9.7 16.1 0.00 0.36 0.36 87 1011.8
20260903190527 26 345 9.7 16.1 0.00 0.36 0.36 87 1011.8
20260903190425 26 327 8.0 16.1 0.00 0.36 0.36 87 1011.8
20260903190325 26 0 8.0 16.1 0.00 0.36 0.36 87 1011.8
20260903190227 26 0 8.0 16.1 0.00 0.36 0.36 87 1011.8
20260903190126 26 3 9.7 16.1 0.00 0.36 0.36 87 1011.9
20260903190026 26 354 8.0 16.1 0.00 0.36 0.36 87 1011.9
20260903185925 26 0 9.7 16.1 0.00 0.36 0.36 87 1011.9
20260903185827 26 355 9.7 16.1 0.00 0.36 0.36 87 1012.0
20260903185726 27 11 9.7 16.1 0.00 0.36 0.36 87 1011.9
20260903185625 27 4 9.7 16.1 0.00 0.36 0.36 86 1011.9
20260903185527 27 31 9.7 16.1 0.00 0.36 0.36 86 1011.9
20260903185425 27 16 8.0 16.1 0.00 0.36 0.36 86 1011.9
20260903185326 27 18 9.7 16.1 0.00 0.36 0.36 86 1012.0
20260903185226 27 11 11.3 16.1 0.00 0.36 0.36 86 1012.0
20260903185126 27 16 9.7 14.5 0.00 0.36 0.36 86 1012.0
20260903185025 27 4 6.4 14.5 0.00 0.36 0.36 85 1012.0
20260903184925 27 348 6.4 14.5 0.00 0.36 0.36 85 1012.1
20260903184827 27 334 6.4 14.5 0.00 0.36 0.36 85 1012.1
20260903184725 27 358 6.4 11.3 0.00 0.36 0.36 85 1012.1
20260903184625 27 338 6.4 11.3 0.00 0.36 0.36 84 1012.2
20260903184526 27 355 6.4 16.1 0.00 0.36 0.36 84 1012.1
20260903184425 27 0 6.4 16.1 0.00 0.36 0.36 84 1012.1
20260903184325 27 350 6.4 16.1 0.00 0.36 0.36 84 1012.2
20260903184225 27 0 6.4 16.1 0.00 0.36 0.36 84 1012.2
20260903184126 27 331 4.8 16.1 0.00 0.36 0.36 84 1012.3
20260903184026 27 336 6.4 16.1 0.00 0.36 0.36 84 1012.3
20260903183925 27 348 8.0 16.1 0.00 0.36 0.36 83 1012.4
20260903183826 27 305 9.7 16.1 0.00 0.36 0.36 83 1012.4
20260903183725 27 276 11.3 16.1 0.00 0.36 0.36 83 1012.4
20260903183625 27 307 9.7 16.1 0.00 0.36 0.36 84 1012.4
20260903183524 27 292 8.0 16.1 0.00 0.36 0.36 84 1012.5
20260903183426 27 302 8.0 16.1 0.00 0.36 0.36 84 1012.6
20260903183325 27 293 9.7 16.1 0.00 0.36 0.36 84 1012.5
20260903183225 27 300 9.7 17.7 0.00 0.36 0.36 84 1012.6
20260903183125 27 289 9.7 17.7 0.00 0.36 0.36 84 1012.6
20260903183026 27 302 8.0 17.7 0.00 0.36 0.36 85 1012.5
20260903182924 27 296 9.7 17.7 0.00 0.36 0.36 85 1012.5
20260903182824 27 309 9.7 17.7 0.00 0.36 0.36 85 1012.5
20260903182725 27 279 9.7 17.7 0.00 0.36 0.36 85 1012.4
20260903182625 27 288 8.0 17.7 0.00 0.36 0.36 85 1012.4
20260903182524 27 299 6.4 17.7 0.00 0.36 0.36 84 1012.4
20260903182426 27 288 9.7 17.7 0.00 0.36 0.36 84 1012.4
20260903182325 27 295 9.7 17.7 0.00 0.36 0.36 84 1012.3
20260903182224 27 278 8.0 17.7 0.00 0.36 0.36 84 1012.2
20260903182125 27 305 8.0 17.7 0.00 0.36 0.36 84 1012.1
20260903182026 27 283 9.7 17.7 0.00 0.36 0.36 84 1012.1
20260903181925 27 300 9.7 17.7 0.00 0.36 0.36 83 1012.0
20260903181825 27 292 9.7 17.7 0.00 0.36 0.36 84 1012.0
20260903181726 27 299 11.3 17.7 0.00 0.36 0.36 84 1012.1
20260903181624 27 302 11.3 17.7 0.00 0.36 0.36 84 1012.0
20260903181524 27 290 12.9 17.7 0.00 0.36 0.36 84 1012.0
20260903181424 27 290 12.9 17.7 0.00 0.36 0.36 84 1012.1
20260903181325 27 272 9.7 17.7 0.00 0.36 0.36 84 1012.1
20260903181225 27 298 9.7 17.7 0.00 0.36 0.36 84 1012.2
20260903181125 27 327 9.7 20.9 0.00 0.36 0.36 84 1012.2
20260903181026 27 295 9.7 24.1 0.00 0.36 0.36 83 1012.2
20260903180924 27 300 8.0 24.1 0.00 0.36 0.36 83 1012.3
20260903180825 27 299 8.0 24.1 0.00 0.36 0.36 83 1012.3
20260903180725 27 320 9.7 24.1 0.00 0.36 0.36 83 1012.4
20260903180624 27 303 11.3 24.1 0.00 0.36 0.36 82 1012.3
20260903180524 27 289 12.9 24.1 0.00 0.36 0.36 82 1012.4
20260903180424 27 300 12.9 24.1 0.00 0.36 0.36 81 1012.4
20260903180325 27 310 14.5 24.1 0.00 0.36 0.36 81 1012.6
20260903180225 27 0 17.7 24.1 0.00 0.36 0.36 81 1012.6
20260903180124 28 152 14.5 24.1 0.00 0.36 0.36 82 1012.6
20260903180025 28 149 9.7 14.5 0.00 0.36 0.36 83 1012.6
20260903175925 28 0 8.0 14.5 0.00 0.36 0.36 83 1012.6
20260903175825 28 0 9.7 14.5 0.00 0.36 0.36 83 1012.6
20260903175723 28 0 9.7 16.1 0.00 0.36 0.36 83 1012.6
20260903175625 28 0 8.0 16.1 0.00 0.36 0.36 83 1012.6
20260903175524 28 161 6.4 16.1 0.00 0.36 0.36 83 1012.5
20260903175424 28 0 6.4 16.1 0.00 0.36 0.36 83 1012.5
20260903175325 28 0 4.8 17.7 0.00 0.36 0.36 84 1012.4
20260903175223 28 0 4.8 17.7 0.00 0.36 0.36 84 1012.4
20260903175124 28 0 8.0 17.7 0.00 0.36 0.36 84 1012.5
20260903175023 28 0 9.7 17.7 0.00 0.36 0.36 83 1012.5
20260903174926 28 353 9.7 17.7 0.00 0.36 0.36 84 1012.5
20260903174823 29 316 9.7 20.9 0.00 0.36 0.36 84 1012.5
20260903174724 29 334 8.0 20.9 0.00 0.36 0.36 85 1012.6
20260903174623 29 336 8.0 20.9 0.00 0.36 0.36 85 1012.6
20260903174524 29 357 9.7 20.9 0.00 0.36 0.36 85 1012.6
20260903174424 29 0 11.3 20.9 0.00 0.36 0.36 84 1012.7
20260903174324 30 348 9.7 20.9 0.00 0.36 0.36 84 1012.7
20260903174225 30 344 8.0 20.9 0.00 0.36 0.36 84 1012.7
20260903174124 30 347 8.0 20.9 0.00 0.36 0.36 83 1012.7
20260903174023 30 343 11.3 20.9 0.00 0.36 0.36 83 1012.8
20260903173924 30 0 11.3 20.9 0.00 0.36 0.36 82 1012.9
20260903173825 30 314 9.7 20.9 0.00 0.36 0.36 82 1012.9
20260903173723 31 329 8.0 14.5 0.00 0.36 0.36 82 1012.8
20260903173623 31 341 8.0 14.5 0.00 0.36 0.36 82 1012.9
20260903173525 31 341 8.0 14.5 0.00 0.36 0.36 81 1012.9
20260903173424 31 0 8.0 14.5 0.00 0.36 0.36 81 1012.9
20260903173323 31 0 9.7 14.5 0.00 0.36 0.36 80 1012.9
20260903173225 31 0 9.7 14.5 0.00 0.36 0.36 79 1012.8
20260903173124 31 13 8.0 11.3 0.00 0.36 0.36 79 1012.8
20260903173023 31 20 4.8 8.0 0.00 0.36 0.36 78 1012.8
20260903172923 31 42 4.8 8.0 0.00 0.36 0.36 78 1012.8
20260903172825 31 59 6.4 8.0 0.00 0.36 0.36 78 1012.8
20260903172724 31 31 6.4 9.7 0.00 0.36 0.36 78 1012.7
20260903172623 31 31 6.4 9.7 0.00 0.36 0.36 78 1012.7
20260903172524 31 20 3.2 9.7 0.00 0.36 0.36 78 1012.6
20260903172424 31 31 3.2 9.7 0.00 0.36 0.36 76 1012.7
20260903172323 31 31 1.6 11.3 0.00 0.36 0.36 76 1012.7
20260903172224 31 31 1.6 14.5 0.00 0.36 0.36 77 1012.6
20260903172123 32 34 6.4 14.5 0.00 0.36 0.36 77 1012.5
20260903172024 32 59 6.4 16.1 0.00 0.36 0.36 77 1012.4
20260903171903 32 59 6.4 16.1 0.00 0.36 0.36 77 1012.4
20260903171803 32 73 6.4 17.7 0.00 0.36 0.36 77 1012.3
20260903171703 32 80 4.8 17.7 0.00 0.36 0.36 78 1012.3
20260903171603 32 68 4.8 17.7 0.00 0.36 0.36 78 1012.2
20260903171502 32 63 6.4 17.7 0.00 0.36 0.36 78 1012.2
20260903171403 32 37 8.0 17.7 0.00 0.36 0.36 79 1012.2
20260903171302 31 55 9.7 17.7 0.00 0.36 0.36 79 1012.1
20260903171203 31 47 11.3 17.7 0.00 0.36 0.36 79 1012.1
20260903171104 31 59 11.3 17.7 0.00 0.36 0.36 81 1012.2
20260903171004 31 66 12.9 19.3 0.00 0.36 0.36 81 1012.2
20260903170903 31 90 11.3 19.3 0.00 0.36 0.36 82 1012.3
20260903170802 31 86 9.7 19.3 0.00 0.36 0.36 82 1012.3
20260903170702 31 78 9.7 19.3 0.00 0.36 0.36 83 1012.4
20260903170602 31 83 9.7 19.3 0.00 0.36 0.36 83 1012.4
20260903170502 30 96 11.3 19.3 0.00 0.36 0.36 83 1012.4
20260903170402 30 90 11.3 19.3 0.00 0.36 0.36 83 1012.5
20260903170303 30 93 11.3 19.3 0.00 0.36 0.36 83 1012.5
20260903170203 30 73 11.3 19.3 0.00 0.36 0.36 83 1012.6
20260903170003 30 93 6.4 17.7 0.00 0.36 0.36 84 1012.6
20260903165902 30 99 8.0 17.7 0.00 0.36 0.36 84 1012.5
20260903165802 30 111 9.7 17.7 0.00 0.36 0.36 84 1012.6
20260903165701 30 97 11.3 17.7 0.00 0.36 0.36 85 1012.5
20260903165602 30 102 9.7 17.7 0.00 0.36 0.36 86 1012.6
20260903165503 30 111 9.7 17.7 0.00 0.36 0.36 86 1012.5
20260903165404 30 117 11.3 17.7 0.00 0.36 0.36 87 1012.5
20260903165305 30 99 11.3 17.7 0.00 0.36 0.36 87 1012.6
20260903165202 30 78 11.3 17.7 0.00 0.36 0.36 87 1012.6
20260903165102 30 100 11.3 17.7 0.00 0.36 0.36 87 1012.5
20260903165004 30 93 11.3 17.7 0.00 0.36 0.36 87 1012.7
20260903164903 30 75 12.9 17.7 0.00 0.36 0.36 88 1012.6
20260903164803 30 97 12.9 17.7 0.00 0.36 0.36 88 1012.7
20260903164703 30 87 11.3 16.1 0.00 0.36 0.36 88 1012.7
20260903164602 30 96 11.3 16.1 0.00 0.36 0.36 88 1012.7
20260903164504 30 90 9.7 16.1 0.00 0.36 0.36 89 1012.7
20260903164402 29 63 9.7 16.1 0.00 0.36 0.36 89 1012.7
20260903164303 29 49 9.7 16.1 0.00 0.36 0.36 89 1012.7
20260903164203 29 59 11.3 19.3 0.00 0.36 0.36 89 1012.7
20260903164102 29 63 9.7 19.3 0.00 0.36 0.36 89 1012.7
20260903164004 29 111 9.7 19.3 0.00 0.36 0.36 89 1012.6
20260903163903 29 86 9.7 19.3 0.00 0.36 0.36 89 1012.7
20260903163803 29 99 9.7 19.3 0.00 0.36 0.36 88 1012.7
20260903163704 29 80 16.1 19.3 0.00 0.36 0.36 88 1012.7
20260903163603 29 80 16.1 19.3 0.00 0.36 0.36 88 1012.7
20260903163503 29 80 16.1 19.3 0.00 0.36 0.36 88 1012.7
20260903163403 29 80 16.1 19.3 0.00 0.36 0.36 88 1012.8
20260903163303 29 80 16.1 19.3 0.00 0.36 0.36 88 1012.7
20260903163202 29 96 14.5 20.9 0.00 0.36 0.36 88 1012.7
20260903163102 29 87 14.5 20.9 0.00 0.36 0.36 88 1012.8
20260903163003 29 82 14.5 20.9 0.00 0.36 0.36 88 1012.7
20260903162901 29 78 12.9 20.9 0.00 0.36 0.36 87 1012.8
20260903162802 30 89 12.9 20.9 0.00 0.36 0.36 87 1012.8
20260903162702 30 79 12.9 20.9 0.00 0.36 0.36 87 1012.7
20260903162603 30 80 12.9 20.9 0.00 0.36 0.36 87 1012.8
20260903162502 30 49 14.5 20.9 0.00 0.36 0.36 86 1012.8
20260903162403 30 79 14.5 20.9 0.00 0.36 0.36 86 1012.8